GFSSE_sfc_dewp_066.txt.gz
Dewpoint
65 64 70 71 71 71 71 71 71 71 71 71 70 68 68 67 67 67 67 67 67 68 68 68 69 67 67 67 67 66 67 67 66 65 63 62 62 62 63 64 63 57 62
66 64 70 71 71 71 71 71 71 71 70 70 68 67 67 67 67 66 66 67 67 66 66 68 68 67 67 66 66 65 65 65 65 65 64 63 63 63 63 63 64 60 62
65 64 68 70 71 71 71 71 71 70 70 68 67 67 67 67 67 66 67 67 67 66 66 66 67 67 65 65 65 64 64 64 64 63 63 53 58 62 63 63 63 62 62
64 62 64 70 70 70 70 70 70 69 68 68 67 67 67 67 66 67 67 68 69 68 66 66 68 66 64 65 65 64 63 63 64 63 52 51 53 61 61 61 62 62 62
64 61 64 69 70 70 70 69 69 68 67 67 67 67 66 66 67 67 68 68 69 69 68 67 67 64 65 66 66 65 63 63 63 56 51 53 54 58 59 59 60 60 61
65 62 68 68 69 70 69 69 68 67 66 67 67 67 66 66 66 66 66 66 68 69 68 67 65 64 65 65 65 64 63 62 60 51 52 56 55 58 58 58 58 59 59
67 67 68 68 68 69 69 68 67 66 66 66 66 66 66 66 66 66 65 66 66 67 66 64 63 64 64 64 63 62 61 60 50 49 50 53 57 57 57 56 57 57 58
68 67 68 68 68 68 68 67 66 66 66 66 66 66 66 66 66 66 65 65 65 65 64 64 63 63 63 62 61 61 59 59 51 49 50 52 57 57 55 54 55 55 56
67 67 67 66 67 67 66 66 66 66 66 66 66 66 65 65 65 65 64 64 64 64 64 64 63 63 62 61 59 59 58 57 50 49 47 50 57 56 54 53 53 53 53
66 66 64 63 63 61 61 64 65 65 66 65 65 64 64 64 64 64 64 64 64 63 63 61 61 61 59 59 57 56 56 55 47 46 48 53 56 54 53 52 52 52 52
64 62 61 62 61 61 61 64 65 65 65 64 63 63 59 55 55 56 62 64 64 62 61 59 59 57 56 53 51 51 51 46 45 44 47 59 55 55 53 52 51 51 51
61 60 61 61 61 60 59 59 62 62 59 58 56 57 53 57 55 56 61 62 61 59 57 54 53 53 52 44 42 46 40 41 40 42 47 56 52 53 52 51 51 50 50
60 61 61 61 59 59 59 62 62 59 60 58 57 54 57 58 58 57 57 54 53 54 45 46 47 46 47 45 43 42 39 37 35 33 43 51 53 51 52 51 49 48 48
58 58 59 59 59 59 60 62 63 58 58 57 55 58 58 57 59 58 56 55 53 49 50 49 47 48 46 44 42 41 40 35 33 32 42 54 51 51 51 50 49 47 45
57 57 58 59 59 59 60 60 57 57 56 55 56 57 56 57 58 57 56 53 51 50 48 48 46 43 43 40 39 38 37 38 38 35 43 55 54 49 49 46 46 46 44
57 56 56 57 57 58 61 59 56 55 56 56 56 58 60 58 59 57 56 52 49 48 47 45 43 41 39 38 39 38 36 35 38 41 40 46 52 50 49 46 44 44 42
54 55 53 56 60 59 61 58 54 53 53 53 53 60 61 61 61 58 54 50 49 49 49 45 43 41 37 35 36 35 35 37 37 39 37 40 43 46 45 44 44 45 46
51 51 53 55 60 62 60 57 53 54 55 55 58 61 63 63 61 59 55 52 49 48 45 43 42 38 37 36 37 36 36 36 38 37 35 37 38 32 41 42 41 40 41
52 51 54 59 61 63 62 59 58 58 56 58 62 62 63 62 61 58 53 51 50 46 46 43 41 40 39 37 36 39 38 35 37 30 35 36 38 32 29 39 36 36 37
55 55 57 58 61 62 63 60 56 56 56 60 62 63 62 61 59 56 52 51 48 47 46 43 43 41 41 42 32 36 39 37 37 36 34 31 34 35 33 34 34 33 35
55 55 57 58 60 61 60 56 54 55 58 60 62 62 61 59 58 56 51 50 49 47 45 47 44 44 42 43 41 39 38 39 39 36 36 33 33 33 36 34 33 30 30
56 57 57 58 60 61 58 56 54 55 56 59 61 61 60 58 56 53 52 50 49 46 47 46 45 42 42 42 39 37 36 36 37 37 35 33 36 32 32 33 35 34 34
55 57 57 58 59 60 58 55 55 57 58 58 60 60 59 56 54 52 51 50 49 46 45 46 46 44 41 41 40 36 34 33 28 31 34 33 35 35 34 34 34 34 35
55 55 57 58 59 60 59 56 55 54 54 56 59 58 55 54 52 49 50 50 49 46 46 46 44 44 41 39 39 35 37 31 24 23 28 31 34 34 36 34 34 34 35
55 56 56 57 58 60 60 59 57 57 56 58 58 57 55 53 51 48 49 49 48 47 48 46 46 43 41 39 36 36 34 33 33 30 28 27 27 29 31 33 34 33 34
57 58 58 57 57 59 61 61 60 59 59 58 57 56 54 53 48 48 46 48 48 47 47 45 44 42 43 38 36 34 33 28 27 27 27 27 26 28 28 32 33 32 33

GFSSE_sfc_dewp_069.txt.gz
Dewpoint
61 65 71 72 72 72 71 71 71 71 71 71 70 69 68 68 68 68 68 68 69 70 69 68 68 67 66 66 66 65 66 66 65 65 64 63 63 63 63 65 62 58 63
63 65 70 71 72 71 71 71 71 71 71 70 69 68 68 68 68 68 68 69 70 70 68 67 67 65 65 65 65 65 64 65 65 66 65 63 63 63 64 64 64 60 63
63 64 69 71 71 71 71 71 71 71 70 69 68 68 68 67 68 68 68 68 69 69 68 67 64 64 64 64 65 64 64 64 63 65 64 52 57 62 62 62 64 63 62
62 63 68 70 71 71 71 71 70 70 69 68 68 68 67 67 68 68 68 68 68 69 67 66 64 64 64 65 65 64 63 63 62 62 51 50 51 60 61 61 61 61 62
63 62 68 70 70 70 70 70 69 68 68 67 67 68 67 68 68 69 70 69 68 68 68 65 64 64 65 66 65 64 63 62 62 55 52 53 51 56 58 59 59 59 60
64 64 68 69 70 70 70 69 68 67 67 67 67 67 68 68 69 69 69 69 68 68 67 63 64 64 65 65 64 63 62 61 61 49 52 55 53 57 57 58 59 59 59
65 66 68 68 69 69 70 68 67 67 67 67 66 67 67 67 67 67 68 68 68 68 66 64 64 64 64 64 62 61 61 62 47 48 50 53 55 56 56 56 57 57 57
67 67 68 69 69 68 68 67 66 67 67 66 66 66 66 66 66 66 67 67 67 66 65 65 64 63 63 61 60 60 60 61 49 47 51 52 56 55 55 54 54 55 55
66 67 67 68 67 66 66 66 66 66 66 66 66 66 66 65 65 65 65 66 65 64 64 64 63 62 61 60 59 58 57 58 49 47 47 51 56 54 53 53 53 54 54
66 66 65 63 65 64 64 65 65 66 66 66 65 65 64 64 64 64 64 64 64 64 63 62 62 61 59 58 57 56 55 58 45 45 50 53 55 54 53 52 52 52 52
63 63 60 60 61 62 62 63 65 65 65 64 63 63 60 54 55 56 63 63 63 63 62 61 60 58 57 54 52 52 54 43 42 44 50 58 55 55 53 52 51 52 51
60 60 59 58 58 58 59 61 63 63 60 59 58 58 54 58 55 56 61 62 62 61 59 59 58 57 55 44 44 49 39 40 37 41 50 56 53 55 53 52 50 50 50
60 59 59 58 57 57 60 62 61 62 58 59 59 57 58 58 59 58 57 55 55 56 49 48 48 48 50 48 45 43 38 36 35 33 44 50 53 53 53 51 50 48 48
59 59 59 59 59 59 61 60 61 59 57 57 58 61 61 59 58 57 54 55 53 51 51 51 50 51 49 45 43 41 39 35 33 32 48 52 50 51 52 51 49 46 45
58 58 58 58 58 57 58 58 57 57 57 59 58 61 59 58 60 56 56 54 52 52 52 52 50 46 46 43 40 37 37 38 38 35 47 55 54 49 51 47 47 47 45
57 57 57 58 59 58 57 53 52 57 54 57 58 58 61 59 61 57 57 54 53 52 51 50 48 46 43 41 39 37 36 35 38 40 41 48 53 51 50 47 45 44 43
57 57 57 57 57 56 56 57 56 56 55 53 53 60 59 58 59 58 56 54 52 52 53 50 48 45 42 37 36 36 36 37 38 38 36 42 46 50 47 44 45 45 44
55 55 55 54 55 57 58 57 56 53 55 53 53 56 59 60 61 59 56 55 54 52 51 48 47 44 40 38 39 37 37 36 37 36 35 36 37 35 45 43 40 37 37
54 53 53 54 56 60 60 57 56 58 53 51 55 59 62 63 62 60 57 56 54 51 50 48 46 44 40 38 37 40 40 37 38 31 35 35 37 33 30 42 39 38 35
52 52 53 57 60 61 62 59 55 54 53 54 57 59 62 62 61 60 57 55 53 50 50 48 47 43 42 41 33 36 42 40 39 38 36 33 34 36 35 35 35 36 40
52 51 53 56 59 60 58 55 52 50 51 53 58 61 62 61 61 60 56 54 53 51 51 49 46 46 43 44 42 42 41 42 42 39 38 37 35 34 35 35 35 32 32
53 54 53 53 56 57 55 53 50 50 50 52 60 62 62 61 60 58 56 54 53 51 51 50 47 44 45 44 43 41 40 40 40 40 39 38 38 35 33 34 35 36 35
52 54 53 54 54 56 55 53 52 52 52 53 58 60 60 60 59 58 56 54 54 52 50 49 48 47 44 44 43 41 39 38 36 37 38 35 38 36 37 35 35 35 35
54 55 55 55 54 56 58 54 54 50 50 52 56 59 58 59 58 56 55 54 55 53 51 49 47 48 47 44 43 39 41 37 34 34 32 33 35 35 38 36 35 35 35
53 55 56 55 55 55 59 57 54 54 53 54 57 59 60 58 57 56 54 54 55 52 52 52 50 48 45 44 40 40 39 38 39 35 32 33 32 30 31 33 33 34 34
56 57 55 55 55 56 58 59 58 57 56 53 59 58 58 57 56 55 54 54 54 51 51 50 49 48 46 44 41 40 38 37 34 32 30 31 29 30 29 28 31 32 33

GFSSE_sfc_dewp_072.txt.gz
Dewpoint
63 67 72 72 72 72 71 71 71 71 71 70 70 70 70 70 70 69 69 69 70 70 68 67 67 65 65 63 63 65 66 66 65 65 64 63 63 64 64 65 64 60 64
66 68 71 71 72 71 71 71 71 71 71 70 69 69 69 69 69 69 70 70 69 69 67 65 65 64 63 64 64 65 66 66 65 65 63 62 62 63 65 64 64 60 62
62 69 70 71 71 71 71 71 71 71 70 69 69 69 68 69 69 69 70 69 69 68 65 64 64 63 63 63 65 65 65 65 65 65 61 53 57 62 62 62 64 63 63
67 68 70 70 71 71 71 71 71 70 69 69 69 68 68 69 69 69 69 69 69 68 64 64 64 64 63 64 64 64 64 64 64 64 51 50 52 60 60 60 60 61 62
65 66 70 70 70 70 70 70 70 69 68 68 68 68 68 68 69 69 68 69 68 67 64 64 64 64 64 65 64 64 63 63 62 55 52 52 51 56 59 59 59 60 60
65 67 69 69 69 70 70 70 69 68 67 67 67 68 68 69 70 70 69 68 69 66 64 64 64 64 64 63 62 62 63 63 62 52 52 54 52 57 58 57 58 58 58
66 68 69 68 69 69 69 69 68 67 67 67 67 68 69 69 70 69 69 68 67 66 65 64 63 63 63 62 62 61 61 61 52 51 52 53 52 56 56 56 56 57 57
66 66 68 68 68 68 68 67 67 67 67 67 67 67 68 68 68 69 69 68 66 66 66 65 64 63 62 61 60 59 59 61 51 52 53 53 55 55 55 55 55 55 55
66 63 63 65 67 67 66 66 66 66 66 66 66 66 66 66 67 67 67 66 66 65 65 64 63 62 61 59 57 57 58 59 53 50 51 53 55 54 54 54 54 54 55
66 65 63 65 64 65 65 66 66 66 66 65 65 65 64 64 65 65 65 65 64 64 63 62 62 61 59 57 56 55 56 58 47 51 53 55 56 54 53 53 53 53 54
61 63 64 63 63 63 63 65 65 65 65 64 63 62 61 60 61 60 63 64 64 63 63 61 60 59 56 55 54 53 54 44 46 51 54 59 56 54 53 52 52 52 53
58 59 61 60 60 60 62 63 64 63 61 60 59 59 56 58 59 60 62 63 63 62 62 61 60 58 55 46 46 52 42 41 46 52 54 58 56 54 53 51 51 51 51
58 58 59 58 58 58 57 58 59 62 60 60 60 57 60 59 59 59 58 57 57 57 52 55 54 51 52 50 47 44 43 41 42 43 51 55 55 55 53 51 50 49 49
57 57 57 58 59 59 58 60 61 60 58 58 59 59 61 60 59 58 56 56 55 54 52 51 55 53 48 46 44 42 41 41 40 46 53 53 54 54 53 51 49 47 47
57 57 57 58 59 59 59 59 60 60 58 58 59 60 61 60 59 58 57 56 54 54 54 55 52 49 48 45 42 40 40 39 39 48 51 56 55 53 52 49 49 48 46
56 56 57 57 57 56 56 56 57 57 58 60 60 60 61 61 61 60 59 57 56 55 55 54 52 49 48 44 41 39 39 40 40 46 47 51 54 54 52 49 46 46 45
55 55 55 55 56 55 54 55 56 55 54 56 58 59 60 60 60 60 60 58 56 56 56 54 52 50 46 42 40 39 40 38 40 38 45 48 50 53 52 49 48 44 42
55 55 56 54 53 54 54 54 54 53 54 55 58 59 60 61 60 60 59 57 57 56 54 52 51 48 47 43 41 39 39 39 38 36 37 40 46 44 49 47 44 41 38
56 55 55 55 54 54 55 54 55 57 56 56 57 58 60 61 61 60 58 57 56 55 54 52 51 49 45 43 42 42 41 40 38 35 37 35 38 36 41 47 46 44 39
55 55 55 54 55 56 56 59 58 56 55 55 59 60 62 62 62 61 58 58 56 55 53 51 50 48 46 45 37 40 43 42 42 41 38 35 38 37 36 38 41 41 44
55 54 53 53 55 58 58 57 55 55 55 56 57 60 62 62 62 61 60 58 56 54 52 53 50 47 45 45 45 44 45 44 43 42 42 39 38 38 38 37 37 36 38
53 52 53 54 58 59 59 57 55 53 54 53 57 61 62 62 62 61 60 56 55 54 55 51 49 47 48 48 45 44 41 42 43 43 42 42 41 37 37 37 38 35 36
52 52 52 55 58 58 58 55 54 53 54 53 60 61 62 62 61 60 60 57 56 56 54 52 51 49 47 47 45 43 40 39 38 41 43 42 39 39 38 38 38 37 37
51 53 54 54 56 57 57 54 53 51 50 53 59 60 61 61 60 59 59 58 57 56 54 52 51 49 49 46 45 43 42 40 37 37 39 38 39 38 39 40 38 38 37
53 55 56 55 54 54 56 57 55 54 53 54 55 60 60 60 60 58 58 57 57 56 55 52 50 50 50 44 44 43 40 40 41 38 35 35 37 38 38 40 38 38 35
55 56 57 56 55 56 58 57 59 56 56 55 60 59 59 59 59 59 57 57 56 55 53 53 51 51 45 44 43 40 40 40 40 38 35 34 33 34 34 34 34 36 35

GFSSE_sfc_dewp_075.txt.gz
Dewpoint
61 68 71 72 72 71 71 71 71 70 70 70 70 70 70 70 70 70 70 70 70 68 66 65 66 66 64 64 64 67 67 66 65 65 63 63 64 65 64 63 64 60 63
62 63 67 71 72 71 71 71 71 70 70 70 70 70 70 70 70 70 70 70 69 67 65 64 64 64 65 65 66 67 66 64 64 64 62 62 63 64 64 63 64 61 62
63 62 67 70 71 71 71 71 71 70 70 70 70 69 69 70 70 70 70 69 67 66 64 63 63 63 63 64 66 66 66 65 64 61 59 55 57 61 62 61 61 62 62
61 63 66 69 70 71 71 71 70 70 70 69 69 69 69 70 70 70 69 67 67 66 63 62 62 63 63 64 65 64 64 62 60 58 52 53 55 60 60 60 60 61 62
59 61 63 69 70 70 70 70 69 69 69 68 68 69 69 70 70 70 68 66 66 66 63 62 62 63 63 63 63 63 63 62 60 55 52 52 54 57 59 59 59 59 61
62 67 66 68 69 70 70 70 69 69 68 67 68 69 69 69 69 69 68 66 66 66 63 62 62 62 63 62 62 62 62 60 57 52 52 54 53 57 58 58 58 58 59
66 67 69 68 69 70 70 69 68 68 67 67 68 68 69 69 69 69 67 66 66 66 64 62 61 62 62 61 61 61 61 59 52 52 52 52 52 57 57 57 56 57 57
65 66 66 68 68 68 69 68 67 67 67 67 68 69 69 69 68 69 67 66 66 66 65 64 63 62 61 60 60 60 61 58 53 52 51 51 54 56 56 56 56 56 56
64 65 65 63 65 67 67 67 66 67 67 67 67 68 68 68 68 67 66 66 66 65 64 63 62 61 60 59 58 58 58 58 52 52 51 51 55 55 56 55 55 56 55
63 62 64 65 64 65 66 66 66 66 66 66 66 66 66 66 66 66 65 65 65 64 63 62 61 60 58 56 56 54 56 57 52 53 54 54 55 54 55 54 55 54 54
63 63 63 63 63 63 64 65 65 65 65 64 64 64 63 63 62 62 64 64 64 63 63 62 60 58 57 54 52 52 52 51 53 54 55 58 55 54 54 53 54 53 53
60 61 62 62 62 62 63 64 63 62 60 60 59 58 59 60 61 62 63 63 63 63 62 61 60 58 51 44 45 48 41 51 53 54 56 59 55 54 53 52 51 51 51
59 59 59 60 60 61 61 61 62 62 58 58 58 57 59 60 60 60 59 59 59 60 57 57 54 50 49 46 42 40 40 43 46 49 56 59 56 54 53 52 50 50 49
56 58 57 57 58 58 59 59 60 60 58 58 57 59 58 58 56 56 55 54 53 52 51 50 52 48 44 42 41 39 38 41 44 47 51 55 57 54 53 51 50 49 48
55 57 57 57 56 56 56 57 56 60 58 58 60 61 60 58 56 56 55 55 53 51 51 52 49 47 44 42 40 38 37 39 46 49 51 53 54 56 53 53 50 49 47
56 56 57 57 58 58 58 57 58 57 58 60 60 60 60 59 58 57 56 54 53 51 53 51 49 47 45 40 38 37 38 39 47 48 50 53 56 57 54 50 48 48 46
56 56 55 56 57 57 56 55 55 53 55 56 58 58 59 60 58 59 57 56 55 53 54 51 49 48 44 42 37 38 37 38 40 46 48 49 52 54 54 51 50 48 45
54 54 55 55 54 55 53 52 51 49 52 52 55 56 58 59 59 59 57 57 55 55 53 52 50 47 45 39 38 37 38 39 36 36 46 47 48 48 52 52 47 43 40
55 55 54 53 52 52 52 50 50 50 53 51 54 57 58 59 59 58 58 56 55 53 52 51 49 47 43 42 39 41 39 39 36 35 35 41 45 44 43 50 49 46 41
54 54 52 51 52 53 53 53 53 54 53 52 55 56 59 59 60 59 57 55 54 53 52 51 49 48 44 42 39 40 40 40 39 39 35 34 37 40 41 41 43 43 47
54 54 53 51 52 54 54 53 54 55 55 54 55 57 60 61 61 60 58 56 56 53 52 50 50 46 44 44 43 43 43 41 41 40 40 37 37 36 36 38 38 38 42
54 53 53 52 52 53 53 53 54 55 54 54 56 60 60 61 61 60 59 58 55 54 51 51 47 45 44 45 42 43 40 40 42 42 42 41 38 38 38 36 36 37 37
53 52 51 51 52 53 54 56 55 53 53 53 54 58 60 61 61 60 60 57 55 54 53 51 47 45 44 46 44 42 39 38 39 40 42 42 40 40 37 36 38 36 36
52 52 51 51 52 53 57 57 55 52 51 51 55 57 60 61 61 61 60 58 55 54 54 51 49 48 46 45 43 42 41 39 36 36 38 40 39 37 37 39 38 38 37
49 50 51 51 52 57 58 57 55 52 51 52 58 59 59 60 60 60 60 58 56 55 55 53 50 49 50 47 44 42 40 39 38 37 36 36 36 38 38 38 39 38 37
49 50 51 51 53 57 57 57 55 53 51 51 56 59 59 60 60 59 59 58 57 56 56 55 53 51 49 47 46 41 40 39 39 40 38 36 34 33 34 35 36 38 36

GFSSE_sfc_dewp_078.txt.gz
Dewpoint
63 67 71 72 72 71 71 71 71 71 71 71 71 71 70 70 70 70 69 69 68 67 65 65 67 67 65 65 64 65 65 65 65 64 64 64 63 63 63 63 63 59 63
63 66 70 71 71 71 71 71 70 70 71 70 70 70 70 70 70 70 69 68 67 66 65 65 65 65 65 65 66 64 63 64 64 63 62 62 62 62 63 63 62 60 62
63 66 68 70 71 71 71 71 71 71 71 70 70 70 70 70 70 69 68 67 66 66 64 65 65 65 65 65 65 64 63 62 62 61 60 57 57 61 61 61 61 62 63
63 64 67 69 69 70 70 70 70 70 70 70 70 70 70 70 69 68 67 66 66 65 64 64 64 64 62 63 64 63 62 60 60 58 55 55 56 60 61 61 62 63 63
63 63 68 68 67 70 71 70 70 69 69 69 69 70 70 70 69 68 67 66 65 65 63 63 63 62 62 63 64 62 61 60 59 55 53 54 54 57 59 59 60 60 61
61 62 66 68 69 69 70 70 69 69 68 68 68 69 70 69 68 67 66 66 65 64 62 62 61 62 62 63 63 62 60 58 56 52 53 55 54 58 58 58 58 58 57
64 65 63 67 68 69 70 70 69 68 68 68 69 69 69 69 67 67 66 66 65 64 62 61 61 62 61 62 62 61 59 58 51 51 51 52 53 57 57 58 57 57 57
65 66 65 66 66 68 69 69 67 67 67 68 68 68 69 68 67 67 66 66 65 65 64 63 62 61 61 60 62 60 59 56 52 51 51 51 55 56 57 57 56 56 55
65 65 65 65 64 64 68 67 67 67 67 67 68 67 68 67 66 66 66 66 65 64 63 62 61 60 60 59 60 60 58 57 51 51 51 51 56 56 56 56 56 55 55
63 63 64 63 62 63 67 66 66 67 67 67 67 67 67 66 66 66 65 65 64 63 63 61 60 59 58 57 60 60 59 57 52 52 52 53 56 55 56 55 55 54 54
63 63 63 62 62 62 63 65 65 66 66 66 66 66 65 65 64 63 64 64 63 63 62 61 60 58 54 56 57 58 56 53 53 54 54 57 55 55 55 54 54 54 53
61 61 62 62 62 61 61 61 62 62 63 63 63 62 62 62 62 62 63 63 63 62 62 60 59 56 51 44 44 53 52 54 54 55 55 58 54 54 53 53 52 53 52
60 61 62 61 61 60 59 60 62 61 59 59 59 60 61 62 61 61 60 60 59 59 57 55 50 49 46 42 40 44 48 50 51 54 58 58 56 54 53 52 51 50 49
58 59 61 61 60 60 59 58 61 60 59 58 60 59 59 58 57 57 56 56 54 54 52 50 50 45 42 40 39 41 44 45 47 49 56 58 57 54 54 52 51 50 49
56 56 58 59 59 59 58 58 59 58 57 58 59 59 58 56 55 54 53 53 52 51 50 52 47 44 41 40 39 38 40 43 43 46 48 56 58 56 54 52 51 49 47
56 56 56 57 57 58 57 56 56 57 58 59 59 59 57 56 55 53 53 52 52 50 52 50 47 45 42 38 37 38 41 45 44 46 49 51 54 57 55 52 49 50 46
56 56 56 57 57 56 55 56 58 57 58 59 58 59 57 57 57 54 53 53 53 51 53 50 48 47 42 40 36 37 40 45 45 46 49 51 54 56 55 53 51 50 47
56 55 56 57 57 56 54 54 53 54 56 56 57 58 58 58 58 56 54 54 54 53 53 50 49 47 44 41 37 37 37 39 43 45 47 49 49 50 53 54 51 46 42
55 55 55 56 55 54 53 53 52 51 51 52 56 56 58 59 58 58 56 56 55 54 53 51 49 47 44 40 38 38 39 39 36 42 45 46 47 47 47 52 51 49 43
54 54 54 54 53 53 54 54 51 53 52 51 53 55 56 58 58 58 57 55 54 53 52 50 48 48 44 42 37 39 39 39 38 38 38 44 45 44 43 44 46 44 48
54 53 52 52 52 53 53 50 48 47 52 52 52 54 57 57 59 58 57 54 54 52 51 50 49 47 45 43 42 41 42 41 40 39 37 36 37 39 41 41 41 38 43
53 53 51 50 51 51 51 49 48 51 54 53 53 54 57 58 59 58 56 55 55 53 51 51 49 46 45 45 42 42 40 42 42 41 41 39 37 38 37 38 37 36 38
51 53 52 50 50 51 51 50 54 54 54 53 53 54 57 59 60 59 58 57 56 54 52 50 49 46 44 45 44 43 40 39 40 41 42 42 41 40 38 38 37 37 37
53 53 53 51 50 51 52 51 51 51 49 51 51 53 58 59 59 60 59 58 56 55 53 51 49 47 46 45 45 44 42 40 37 36 38 39 42 40 39 38 37 38 37
53 53 52 51 51 50 52 51 52 53 53 53 53 54 58 59 59 60 60 59 57 55 54 54 52 50 50 49 46 45 43 40 39 38 36 37 37 38 38 38 38 38 38
52 52 51 50 50 51 51 53 55 55 54 52 52 54 56 58 59 60 60 59 58 56 55 54 52 51 51 49 47 45 45 45 43 42 40 39 38 37 34 34 35 36 38

GFSSE_sfc_dewp_081.txt.gz
Dewpoint
68 70 71 72 71 71 71 71 70 70 70 70 70 70 70 70 70 70 69 68 67 67 66 65 67 65 64 64 64 64 64 65 65 63 62 62 62 63 63 62 63 59 64
65 70 71 71 71 71 71 71 70 70 70 70 70 70 70 70 69 69 68 67 67 67 66 65 65 64 64 63 63 64 63 64 64 63 62 62 62 62 62 61 62 59 61
63 66 70 70 71 71 71 71 71 71 71 70 70 70 70 69 69 68 67 67 67 67 66 65 65 65 65 65 62 62 62 62 63 61 61 57 57 62 62 64 65 64 63
63 65 70 70 70 70 70 70 70 71 70 70 70 70 70 69 68 68 67 66 67 67 66 66 65 64 64 65 63 61 60 60 60 59 55 55 56 60 63 63 62 63 63
63 63 68 69 69 69 69 70 70 70 70 70 70 70 69 68 68 67 66 66 67 67 65 63 62 63 64 63 62 60 59 59 58 56 54 54 55 58 61 59 59 60 61
63 62 67 68 67 67 68 69 70 69 69 69 69 70 69 68 67 67 65 65 66 66 63 61 62 63 64 63 62 60 59 58 56 53 54 55 54 59 59 58 58 57 57
61 62 63 67 66 67 68 70 69 69 68 69 69 69 68 67 67 66 65 65 65 65 63 61 63 65 63 61 61 60 59 57 52 52 52 53 54 58 58 58 57 57 57
63 63 64 66 67 67 68 68 68 68 68 68 69 68 67 67 67 66 65 65 64 64 63 62 62 63 62 61 60 59 58 57 52 51 52 53 56 58 58 57 56 55 55
65 63 63 64 64 64 66 66 67 67 67 68 68 67 66 66 66 66 65 65 63 62 61 61 60 62 62 61 60 59 58 56 51 51 52 52 57 57 57 56 55 55 54
63 62 62 63 63 63 63 66 66 66 67 67 67 67 65 65 66 65 64 63 63 62 60 59 59 61 61 61 59 59 58 56 51 52 52 53 57 57 56 56 55 54 54
63 63 63 62 61 61 62 62 65 66 67 67 67 66 64 64 64 63 62 63 63 62 61 59 58 61 61 60 60 59 56 53 53 53 53 57 56 56 56 55 54 54 53
60 61 61 61 60 61 61 63 63 64 65 66 66 64 64 63 62 62 62 62 62 61 60 59 57 54 52 52 56 56 53 54 54 54 55 57 55 56 55 54 54 53 52
60 61 61 60 60 59 59 60 61 61 62 63 63 63 62 62 62 60 60 59 58 57 52 50 49 43 40 46 49 52 53 53 54 55 57 58 55 54 54 52 52 52 51
59 60 61 60 60 58 58 58 60 60 61 62 62 62 61 60 59 58 57 56 54 53 50 49 46 43 40 43 47 49 50 51 52 54 57 58 57 54 54 53 51 50 49
57 59 60 60 58 57 57 56 59 60 60 61 61 61 60 58 56 55 54 53 52 51 50 47 44 41 40 39 42 45 45 47 48 50 54 58 58 55 54 53 52 50 48
56 57 59 59 58 57 56 58 58 59 59 60 60 59 58 56 55 53 52 51 51 49 51 47 44 41 40 39 38 40 42 42 43 45 49 54 58 57 56 53 52 50 47
56 57 57 58 59 58 56 56 58 57 58 59 59 58 56 56 54 53 52 51 50 50 51 48 45 43 40 37 37 40 44 43 43 44 47 50 53 57 57 54 50 50 49
56 56 57 57 58 57 56 57 57 57 58 58 58 56 55 56 55 53 52 52 52 52 51 49 47 45 41 38 37 37 42 45 42 44 47 50 51 52 54 55 53 49 45
56 56 57 56 56 55 55 53 54 56 57 57 58 56 56 57 56 53 53 53 53 52 52 49 49 46 42 40 37 38 38 41 43 44 45 48 49 49 49 55 53 51 46
56 56 56 56 55 55 55 54 52 52 52 54 56 56 58 57 57 56 55 54 54 53 52 50 48 47 44 41 36 37 38 39 38 42 44 45 47 47 47 47 49 47 49
54 54 55 54 53 54 54 53 53 53 51 51 53 55 58 58 58 57 56 55 54 53 52 50 48 46 44 42 40 40 40 40 39 38 39 42 44 45 44 43 44 40 44
54 53 52 52 52 52 52 50 51 51 53 52 52 54 55 56 58 57 56 54 54 52 51 50 48 47 46 44 41 40 38 39 42 40 39 37 38 38 41 40 40 38 37
52 52 51 52 52 51 51 50 52 51 52 52 52 52 55 56 58 58 56 55 54 53 51 50 49 47 45 45 44 42 40 38 40 41 41 40 38 38 38 37 38 38 37
51 52 51 50 51 52 51 49 49 47 45 45 47 50 53 56 58 58 58 56 55 54 52 51 52 49 49 44 45 44 43 42 39 38 39 40 42 41 40 39 38 37 37
52 51 52 51 50 50 51 50 50 48 47 48 51 52 52 54 57 58 58 57 56 55 54 53 51 50 50 49 48 45 43 41 41 40 40 38 38 39 40 40 40 39 38
52 53 52 51 50 50 51 51 50 50 50 51 52 52 52 53 56 58 58 58 58 57 55 54 54 51 50 50 49 46 45 45 45 44 42 42 42 43 41 37 36 38 38

GFSSE_sfc_dewp_084.txt.gz
Dewpoint
67 70 71 71 71 71 70 71 71 71 71 71 71 71 71 71 70 70 69 69 69 68 66 65 65 64 64 65 65 65 66 65 63 64 63 63 63 63 63 62 63 61 65
69 70 70 71 71 71 71 70 71 71 71 71 71 71 70 70 70 69 68 68 67 67 65 65 64 64 64 64 65 64 64 64 65 65 63 64 63 61 62 64 61 60 63
67 70 69 70 71 70 71 70 70 71 71 71 71 70 70 70 69 68 68 68 68 67 65 65 64 63 63 64 63 63 63 62 63 62 61 58 60 65 65 65 64 63 63
65 69 69 70 70 71 70 70 70 70 70 70 70 70 70 69 68 68 68 67 67 67 65 65 65 65 62 62 62 62 61 61 61 59 56 56 58 63 63 63 62 61 62
64 65 69 69 70 70 70 70 70 70 70 70 69 69 69 68 68 68 67 67 67 67 66 65 65 64 63 63 62 61 60 60 59 56 55 55 57 58 59 59 59 59 58
63 63 66 68 69 70 70 70 70 70 69 69 69 69 69 68 68 68 67 67 67 66 64 64 65 63 63 62 61 60 59 59 57 54 55 57 56 59 59 58 57 57 57
62 62 64 67 67 69 70 70 69 69 69 69 69 68 68 68 67 67 67 66 65 64 64 64 64 63 62 62 61 60 60 57 53 53 53 54 56 58 59 58 57 57 56
62 62 64 65 67 67 68 69 68 69 68 68 68 67 67 67 66 66 66 65 64 63 65 65 64 62 62 61 59 59 59 57 53 52 53 54 58 58 58 57 56 56 56
63 63 63 64 64 66 65 66 67 68 68 68 67 66 66 66 65 65 65 64 63 64 65 64 62 62 61 60 60 59 58 56 52 53 53 54 58 58 57 57 56 55 55
63 62 61 63 63 63 63 65 65 66 67 67 66 66 65 65 65 65 63 62 62 61 64 64 62 61 61 60 59 58 58 56 52 52 53 56 58 58 57 56 55 55 54
62 60 61 62 62 62 63 64 65 65 66 66 66 65 64 64 63 62 61 61 61 60 61 63 62 61 60 60 59 58 55 52 53 53 54 58 57 57 57 55 55 54 54
60 61 62 61 60 60 62 62 64 63 64 65 64 64 64 63 61 61 62 61 60 60 61 62 62 61 58 56 56 56 53 53 53 54 55 59 57 57 56 55 54 54 53
61 61 61 60 60 59 60 60 62 63 63 65 64 63 63 62 61 60 59 58 55 56 52 52 51 50 53 53 52 53 53 53 54 54 57 58 56 56 56 55 54 53 52
60 60 60 60 59 59 60 62 62 62 63 64 63 62 61 61 59 58 57 55 52 50 47 44 44 46 49 51 52 52 52 53 53 54 57 58 57 55 54 53 53 52 51
59 60 60 59 58 57 58 60 61 62 62 62 63 62 61 59 58 56 55 53 52 50 45 43 42 43 47 48 50 51 51 52 53 54 55 58 57 56 54 53 52 51 50
57 59 59 58 57 56 57 58 60 60 61 62 61 61 59 58 56 54 53 52 50 50 47 44 41 41 42 45 46 46 47 48 50 52 53 56 57 57 55 53 52 50 49
57 58 59 58 57 56 56 56 58 61 61 60 60 59 57 56 55 54 52 51 50 51 48 45 43 41 40 39 41 42 43 43 44 47 50 53 56 57 57 56 54 50 49
56 57 58 58 58 57 56 55 56 58 60 60 59 58 56 56 54 52 51 51 51 52 49 46 44 41 40 38 39 42 44 44 43 44 47 50 52 54 56 54 54 51 48
56 57 57 57 57 56 57 58 58 58 59 58 58 57 56 55 54 52 52 52 51 52 50 48 47 44 41 39 38 39 42 45 43 43 46 49 51 52 51 55 55 53 49
56 57 56 56 56 56 55 55 57 56 56 58 57 56 56 55 54 54 53 53 52 52 51 49 48 47 43 41 36 37 39 40 42 44 45 46 49 50 50 52 52 50 51
55 56 55 54 55 55 55 55 55 54 54 56 56 56 56 56 55 54 54 54 53 51 51 50 48 46 45 42 40 40 41 40 40 39 42 44 46 47 48 47 48 46 46
54 55 54 53 54 55 55 56 56 53 52 53 55 57 57 57 56 56 55 54 54 52 51 50 49 47 46 43 40 40 38 39 42 41 40 40 43 44 45 45 44 44 40
53 53 53 52 52 53 55 52 51 51 52 53 53 54 56 57 58 57 56 55 54 53 52 51 49 47 46 45 44 42 39 38 40 42 42 41 38 39 41 41 42 41 41
52 52 52 52 51 52 52 51 49 50 49 49 50 51 53 55 56 57 56 56 54 54 52 52 51 49 48 46 45 44 44 44 42 39 40 42 42 40 39 40 39 39 40
51 52 52 52 51 51 51 51 49 49 50 46 48 49 51 54 55 56 56 55 55 54 54 52 51 49 49 48 47 45 44 42 42 42 42 40 40 43 43 43 42 41 39
51 51 52 51 51 51 51 50 49 49 48 48 48 50 51 52 54 55 57 57 56 55 54 53 52 51 51 50 49 47 46 44 45 44 43 44 44 44 42 40 38 40 40

GFSSE_sfc_dewp_087.txt.gz
Dewpoint
66 68 70 71 71 71 72 71 70 70 71 71 71 71 71 71 71 71 70 70 69 69 68 67 67 66 65 64 64 66 65 65 65 65 65 65 64 64 64 65 65 63 66
67 69 70 71 71 71 72 71 71 71 71 71 70 70 70 70 70 70 70 69 69 68 66 65 65 65 65 65 65 65 65 65 64 64 64 63 63 63 62 63 65 62 64
68 69 69 70 71 71 72 72 71 72 71 71 71 71 70 70 70 69 69 68 68 67 65 64 64 64 65 65 64 64 64 64 64 63 64 59 61 64 64 65 64 62 63
69 70 68 70 70 71 71 71 71 72 71 70 71 70 70 69 69 69 68 67 67 67 65 64 64 64 64 64 63 63 62 62 61 62 59 59 59 64 63 63 62 61 62
67 69 69 70 69 70 70 71 71 71 70 70 70 70 69 69 69 69 68 67 67 67 65 64 64 63 63 63 63 62 61 61 61 59 56 57 57 60 61 60 59 58 59
65 65 65 67 68 70 70 70 70 70 70 69 69 69 69 69 69 68 67 67 67 67 66 65 63 62 63 63 62 62 60 60 59 56 55 57 55 60 59 58 58 58 58
65 65 64 66 68 68 70 70 70 69 69 69 69 68 68 68 68 68 67 67 67 66 67 64 62 61 62 62 61 60 60 60 54 54 54 54 56 59 59 58 58 57 57
64 65 64 66 67 67 67 69 69 69 68 68 68 67 67 68 67 67 67 66 65 66 66 64 63 62 61 61 60 60 59 58 55 54 54 54 58 58 58 57 57 56 56
63 65 65 65 66 64 66 66 67 67 68 67 67 66 66 66 66 66 65 65 65 65 65 64 63 62 61 60 60 59 59 58 54 54 52 53 58 58 58 57 56 56 55
63 63 64 65 66 65 65 65 65 67 67 67 66 66 65 65 66 65 64 64 66 66 65 63 62 61 61 60 60 59 59 58 54 54 53 54 58 58 57 57 56 56 55
63 63 63 63 65 66 64 65 66 67 66 66 66 65 64 64 63 62 61 63 65 65 63 62 61 61 60 60 59 59 57 52 54 53 53 59 58 58 57 56 55 55 54
61 62 62 62 63 63 65 64 66 66 67 66 65 65 64 64 62 60 61 62 63 64 63 62 61 60 56 53 54 55 51 54 53 53 53 59 58 57 57 56 55 54 53
61 61 62 61 61 61 61 63 65 65 65 65 64 63 64 61 61 59 59 56 60 62 59 59 58 53 55 53 51 52 54 53 53 53 55 59 57 57 56 55 54 53 52
61 61 61 60 60 60 60 61 63 63 64 64 63 63 62 60 59 58 55 54 55 57 60 58 55 56 55 53 53 54 53 52 52 52 55 58 58 56 56 54 53 52 52
60 60 60 59 59 58 59 61 62 62 63 63 63 63 61 58 58 56 55 51 51 51 53 54 54 54 54 53 53 53 53 53 54 52 52 58 58 56 54 54 53 52 51
58 60 59 58 58 57 59 61 62 62 63 62 63 63 61 58 58 55 53 51 49 48 49 51 52 52 52 52 53 53 53 53 53 54 52 53 57 57 55 53 52 51 50
57 59 58 58 58 57 58 60 61 62 62 61 61 61 59 58 56 55 53 51 50 48 49 48 49 51 50 50 50 51 52 53 53 54 54 53 54 57 57 56 53 51 50
57 58 58 58 58 58 58 59 60 61 61 61 60 60 58 58 56 55 53 52 52 49 47 45 44 45 46 46 45 46 46 49 52 54 53 54 53 51 55 57 57 54 51
57 57 58 58 57 58 58 59 60 60 60 60 60 58 58 57 56 54 53 53 54 50 49 46 45 44 42 42 42 44 45 44 45 43 49 53 55 54 53 55 55 55 53
57 57 57 57 57 57 58 58 59 59 60 59 59 58 57 56 56 56 53 53 53 52 51 49 47 47 44 42 34 40 45 46 46 44 43 44 51 54 54 53 50 49 52
57 56 56 56 56 56 57 57 56 56 58 57 57 57 57 56 55 56 54 53 53 53 52 52 50 49 46 45 42 42 41 43 45 44 45 45 46 49 54 52 51 48 45
56 56 55 55 55 56 56 57 56 56 56 56 57 57 57 56 56 56 55 53 53 53 54 53 52 50 49 46 44 43 42 42 42 42 42 43 47 46 50 51 51 51 47
55 55 54 54 55 56 56 56 55 54 54 55 56 57 57 57 56 55 55 55 56 54 53 54 54 52 50 48 47 47 43 44 43 44 44 43 43 45 46 47 48 47 47
54 54 54 54 54 55 56 55 54 51 52 53 54 55 56 57 56 55 55 56 56 55 55 55 54 54 53 50 47 45 48 47 45 44 43 45 44 42 44 44 44 45 44
53 53 54 53 53 54 56 55 54 52 52 54 54 54 56 57 58 57 57 58 58 58 58 57 56 55 54 54 51 49 48 46 46 45 47 44 42 44 44 43 43 41 42
52 53 53 53 53 53 54 54 53 54 53 51 53 52 53 54 56 57 58 59 59 58 58 58 57 57 56 55 54 53 50 49 47 46 47 47 46 47 45 44 45 44 43

GFSSE_sfc_dewp_090.txt.gz
Dewpoint
65 64 70 72 72 72 72 71 71 71 71 72 71 71 71 71 71 71 70 70 70 70 68 67 68 67 66 66 66 67 67 67 67 67 66 66 66 66 66 67 66 64 67
65 66 70 71 72 72 72 71 71 71 72 72 71 71 71 71 71 70 70 70 70 69 67 66 66 65 65 65 66 66 66 65 65 66 66 64 64 65 65 66 66 63 65
66 67 67 71 71 72 72 71 71 72 72 71 70 70 71 71 71 70 70 69 69 68 66 65 66 65 65 65 66 66 66 65 65 65 65 56 60 64 64 64 65 63 63
64 67 66 70 70 70 71 71 71 72 72 71 70 71 71 71 70 70 69 68 68 67 65 65 66 65 65 65 65 64 63 63 64 65 57 58 59 63 63 62 62 62 61
61 68 67 70 69 70 71 71 70 71 70 70 70 71 70 70 70 69 68 67 67 66 64 64 64 65 64 65 64 64 62 63 63 59 57 58 57 60 61 60 60 61 61
62 66 68 67 68 70 70 70 70 70 70 70 70 70 70 69 69 68 67 66 66 66 64 64 63 63 64 64 63 62 62 62 62 54 55 58 57 59 59 60 59 58 58
62 66 68 65 68 67 67 68 69 70 70 70 69 69 69 69 68 67 67 67 66 66 64 63 63 62 63 63 62 61 61 60 51 50 51 54 57 59 59 58 58 58 57
66 66 68 65 67 67 65 65 69 69 69 69 68 68 68 68 67 67 67 67 67 66 65 63 62 62 62 61 61 61 60 59 52 51 52 53 59 59 58 58 57 57 57
65 66 66 66 67 64 63 62 63 68 68 68 67 67 67 67 66 67 67 67 67 65 64 63 62 62 61 61 60 60 60 61 51 50 50 53 58 58 58 57 57 56 56
63 64 65 65 66 66 66 65 66 67 67 67 67 66 66 66 66 65 65 66 66 65 64 63 62 62 61 61 60 59 59 59 50 50 50 54 58 58 57 57 56 56 56
63 63 64 65 65 64 65 66 66 66 66 66 66 66 65 65 64 63 63 65 65 64 63 63 62 61 61 60 60 59 59 50 50 49 51 59 58 58 57 57 56 56 55
62 63 62 63 65 65 64 66 66 66 66 67 66 66 64 65 63 59 64 65 65 63 63 62 61 60 56 51 53 56 48 51 50 50 53 60 58 57 57 56 55 55 54
59 63 63 62 63 63 65 66 67 65 65 66 66 64 65 64 62 59 62 63 62 60 55 56 56 52 52 49 50 49 51 51 50 50 56 59 58 57 56 56 55 54 54
58 61 63 62 62 63 63 64 64 64 64 64 63 63 65 62 60 58 57 59 59 56 56 55 52 54 54 50 50 52 51 48 49 50 55 59 59 57 56 55 54 53 52
58 61 62 61 61 61 60 61 63 64 64 63 63 63 62 61 59 56 56 56 56 56 56 55 54 55 53 50 50 50 50 50 51 49 52 59 59 57 56 55 54 53 52
58 60 61 60 59 60 60 60 61 63 64 63 63 62 60 60 58 55 55 53 55 56 56 55 54 53 50 49 50 50 50 50 50 52 51 54 58 58 57 55 53 52 51
58 59 59 59 59 59 59 60 62 61 63 63 62 60 59 59 57 57 52 52 51 53 56 54 54 51 49 48 49 49 49 51 50 51 51 52 54 57 57 57 54 52 51
57 59 58 58 58 58 59 60 62 63 62 62 61 59 58 58 56 55 52 51 50 52 51 51 50 49 48 46 47 47 47 49 50 51 51 51 51 50 55 57 57 54 52
57 58 58 57 57 58 59 60 61 61 61 61 61 58 57 58 56 54 53 54 53 50 48 48 48 49 46 44 43 44 46 47 50 48 50 52 53 51 51 56 57 57 56
57 58 58 58 58 58 60 59 60 59 60 60 60 57 57 56 57 55 54 55 53 51 50 48 49 47 45 44 37 40 45 44 44 45 47 48 50 53 52 52 53 52 55
57 57 57 58 57 57 58 57 57 57 58 59 59 57 56 55 56 56 54 55 54 52 53 53 50 50 47 46 41 42 43 46 47 45 44 43 44 50 52 52 50 48 49
56 56 57 57 56 56 57 58 57 58 58 58 58 58 56 56 55 56 55 53 54 53 54 54 52 50 49 47 47 48 46 45 44 45 44 45 47 44 46 50 51 51 52
56 56 56 56 56 56 57 57 57 57 57 56 57 58 57 55 55 55 55 54 55 54 54 55 54 54 51 51 51 49 48 46 49 47 47 45 46 47 46 49 51 52 52
56 56 56 56 56 56 57 55 56 54 54 54 54 55 57 57 56 54 54 55 56 55 55 55 54 55 54 52 51 49 52 52 48 50 47 47 46 45 48 48 48 50 50
54 56 56 56 56 56 56 55 54 53 54 54 55 54 55 57 57 55 55 56 56 55 55 56 56 56 55 54 53 52 51 51 52 50 47 49 47 45 44 45 46 46 47
54 54 56 55 55 56 56 56 54 53 53 53 53 55 55 53 53 56 53 55 56 55 56 57 58 58 57 56 56 55 53 50 50 50 49 50 51 50 47 47 47 45 46

GFSSE_sfc_dewp_093.txt.gz
Dewpoint
60 68 72 72 72 73 72 71 71 71 71 72 71 71 71 71 71 71 71 70 70 70 68 68 68 68 68 68 68 69 69 68 68 68 68 68 68 68 67 68 67 65 68
63 65 70 72 72 72 72 72 71 72 72 72 71 71 71 71 71 71 70 70 70 69 67 67 67 67 66 66 67 68 68 67 67 66 67 66 67 67 67 67 66 64 66
61 65 67 71 72 73 72 71 72 72 72 71 71 71 71 71 71 70 70 70 69 69 66 65 66 66 66 66 67 66 66 66 66 66 66 61 62 65 65 65 65 64 65
59 65 66 71 71 72 70 71 71 72 72 71 71 71 71 71 71 70 70 69 68 68 66 66 66 66 65 66 66 66 66 66 66 66 56 57 59 64 64 63 63 63 63
59 62 67 70 70 70 70 70 70 71 70 70 70 71 71 71 70 70 69 68 67 68 66 66 66 65 65 65 65 65 64 63 64 60 57 59 58 60 62 62 61 61 62
57 60 68 67 69 70 69 71 71 70 68 70 70 71 71 71 70 69 67 67 67 67 66 65 65 65 65 64 64 63 62 63 64 56 56 57 56 62 61 60 60 60 60
61 60 67 65 66 68 68 67 67 68 68 69 70 70 70 70 69 68 67 66 66 66 66 64 64 64 64 64 63 62 62 61 52 51 53 54 57 60 59 59 59 59 59
64 65 66 67 66 68 67 62 61 65 68 69 69 69 69 68 68 67 66 66 66 65 65 64 64 63 63 63 62 60 59 60 51 50 52 53 60 59 59 58 58 58 57
64 65 67 68 67 67 65 63 63 64 64 67 68 68 68 67 66 66 67 66 65 64 64 64 63 63 62 61 61 60 59 61 50 51 51 54 60 59 58 58 57 57 57
63 64 66 66 68 68 67 62 63 64 63 66 67 67 66 66 66 67 66 66 65 64 64 63 63 62 62 61 60 59 59 60 49 49 50 55 59 58 58 57 57 57 56
63 63 64 64 66 67 66 64 64 63 62 65 66 66 65 64 65 65 65 65 64 64 63 63 62 62 61 60 59 59 60 48 48 49 52 60 58 58 58 57 56 56 56
62 62 62 63 64 65 63 65 64 62 62 62 68 66 64 66 65 62 65 64 64 63 63 62 61 61 56 51 52 57 52 49 48 50 53 60 58 58 57 56 56 55 55
59 62 62 62 63 64 65 65 64 63 64 65 68 66 65 65 64 66 64 62 60 60 55 56 55 50 49 48 50 51 51 51 49 50 56 60 58 57 57 56 56 55 54
55 61 63 62 62 63 64 65 65 64 62 66 66 65 65 64 64 63 62 60 58 54 54 53 51 53 51 50 50 51 51 48 49 52 56 59 59 57 57 56 55 54 54
55 58 62 62 62 62 62 64 65 64 64 64 64 64 65 63 62 61 61 59 56 55 54 53 53 52 51 50 50 50 49 50 52 51 53 59 59 58 56 56 55 53 53
55 59 61 62 62 61 62 62 62 65 64 63 63 64 63 63 60 59 60 58 55 55 54 53 53 53 50 49 50 50 49 50 50 52 52 55 59 58 57 55 55 53 53
57 59 61 61 60 60 60 61 62 63 63 63 62 63 63 61 60 61 59 57 55 57 59 55 55 52 48 47 49 49 49 50 50 51 51 53 55 58 58 57 55 53 52
57 59 59 59 59 59 60 61 61 62 64 63 62 62 62 61 60 59 56 55 56 57 55 54 52 48 48 47 48 47 48 49 50 51 51 52 52 50 56 57 57 56 53
57 59 59 58 59 59 60 62 62 62 62 62 61 61 59 59 59 57 54 54 56 55 55 54 53 53 50 46 46 46 47 48 50 48 50 52 54 52 52 56 58 57 56
57 59 58 58 59 59 60 60 60 61 61 61 60 59 57 57 57 56 53 53 52 50 52 53 54 54 48 47 40 43 46 46 48 49 50 49 51 53 53 53 53 52 57
57 58 58 57 58 59 59 58 57 57 59 59 58 57 56 55 55 57 54 52 53 52 53 55 55 54 51 48 43 45 46 47 47 46 46 48 49 50 52 52 53 51 53
56 57 57 57 57 58 58 58 58 57 58 58 58 58 57 56 55 55 55 55 55 55 55 55 55 53 51 50 47 47 46 46 47 48 48 47 51 46 48 52 53 53 51
55 57 57 57 57 57 58 58 58 58 58 57 57 57 56 56 55 55 56 56 56 56 56 57 56 55 52 52 53 50 50 48 50 48 51 49 52 50 48 48 51 52 52
56 56 56 57 56 57 58 57 56 54 54 55 56 57 57 56 55 55 56 56 57 57 57 57 56 56 57 52 53 51 55 52 50 50 49 50 51 50 52 50 48 51 52
55 55 57 56 56 57 56 57 56 54 54 55 56 57 57 53 53 52 54 57 57 57 58 58 58 59 57 56 55 54 53 52 54 51 48 50 50 49 49 51 50 49 50
55 55 56 56 56 57 57 57 56 55 54 54 54 54 56 54 52 53 55 57 58 57 57 58 59 59 58 57 57 56 55 52 50 53 53 52 52 53 50 48 49 49 49

GFSSE_sfc_dewp_096.txt.gz
Dewpoint
66 69 72 73 73 72 71 71 71 72 72 72 71 72 72 71 71 70 70 70 70 69 68 69 70 69 69 69 69 70 69 69 69 69 69 68 68 68 68 68 68 66 69
64 68 71 72 73 72 71 71 72 72 72 71 72 71 71 71 71 70 70 70 70 70 69 69 68 68 68 68 69 68 68 68 67 68 68 68 67 67 67 68 67 66 67
62 69 69 71 72 72 72 71 72 72 72 71 72 71 71 71 71 70 70 70 70 69 68 68 67 67 67 67 68 68 67 67 67 67 66 63 63 66 66 66 67 66 65
59 66 69 71 72 72 72 71 71 72 72 71 71 71 71 71 71 70 70 69 69 68 67 67 67 66 66 67 67 67 67 67 66 65 60 60 61 65 65 65 64 64 64
59 62 69 70 71 72 71 71 71 71 71 71 71 71 71 71 71 70 69 68 68 68 66 66 66 66 66 66 66 66 66 67 64 59 57 57 59 62 63 63 62 62 62
60 62 69 69 70 70 71 71 69 70 68 70 70 71 71 71 70 70 69 68 68 68 67 66 66 65 65 65 64 64 64 63 62 57 56 60 60 63 62 61 61 61 62
64 66 69 68 68 68 70 70 68 66 65 67 69 68 69 70 70 69 68 68 67 67 67 66 65 64 64 64 63 62 61 61 56 53 55 57 58 60 61 60 60 60 60
67 68 68 67 66 66 68 66 66 65 63 66 67 68 69 69 68 67 67 67 66 66 66 66 65 64 64 63 61 60 60 61 54 52 54 56 60 60 60 59 59 59 58
67 67 68 69 68 66 67 64 64 65 63 63 63 65 68 67 67 66 67 66 66 66 65 65 64 64 63 62 60 59 59 61 52 53 55 56 60 59 59 59 58 58 58
65 66 66 66 68 68 66 63 62 64 63 61 62 63 66 66 66 66 66 66 65 65 64 64 64 63 62 61 59 59 59 61 51 52 54 57 59 58 58 58 58 58 57
64 65 65 65 67 68 67 64 63 64 62 60 63 61 65 65 65 66 64 65 64 64 63 63 63 62 61 59 59 59 59 51 51 53 55 60 59 58 58 57 57 57 57
63 64 63 64 65 66 65 65 63 63 63 62 62 61 65 64 65 64 64 64 64 63 63 62 61 60 57 54 55 57 54 51 52 53 56 60 59 58 58 57 57 56 56
63 63 63 63 65 65 64 65 63 63 62 62 61 60 66 65 64 64 62 62 61 62 59 59 57 51 50 51 53 53 53 52 52 53 57 60 59 58 57 57 56 56 55
61 63 63 63 64 64 65 64 63 62 60 62 63 63 65 64 64 63 61 60 57 56 55 52 52 52 51 50 53 53 52 52 53 54 57 60 59 58 57 57 56 55 54
58 62 64 63 63 63 63 64 64 63 62 63 64 65 65 63 64 63 60 56 53 54 53 52 54 51 53 50 53 51 51 52 53 54 56 59 59 58 57 56 56 55 54
57 60 63 62 62 62 63 63 64 63 62 64 64 65 64 62 63 62 59 55 55 54 53 53 54 53 52 52 52 52 50 52 52 54 55 57 58 59 58 56 55 54 54
57 60 60 61 61 61 62 62 62 64 63 62 63 63 63 62 61 60 60 56 56 55 55 56 55 54 52 50 51 52 52 51 52 53 53 55 57 58 58 58 56 55 54
57 59 60 60 60 60 61 61 61 63 62 62 62 63 62 61 60 59 59 57 57 57 55 56 55 52 51 51 50 50 50 50 52 53 53 53 54 54 57 58 58 57 55
58 58 59 59 59 60 61 61 61 62 63 62 62 62 62 60 59 59 59 59 57 57 58 55 54 53 51 50 50 50 52 51 51 50 53 52 53 52 53 57 58 57 57
57 58 59 59 60 60 60 61 61 62 62 62 61 61 61 59 59 58 58 58 58 56 56 55 53 53 51 50 44 48 50 51 52 52 51 52 54 53 52 52 54 54 57
57 58 58 58 59 59 58 58 59 59 61 61 61 60 60 58 56 55 55 55 54 54 54 55 54 51 51 50 48 48 47 49 49 50 52 52 52 53 53 54 53 52 53
56 57 58 57 58 58 58 58 58 59 59 59 58 58 58 56 56 54 53 53 54 54 54 54 53 52 51 50 48 46 46 47 48 49 48 48 50 51 52 52 53 52 51
55 57 57 57 58 58 59 58 57 58 58 57 57 57 57 56 56 55 55 54 55 55 54 55 54 53 51 52 51 52 50 48 48 49 49 50 48 50 49 51 52 53 53
55 56 56 57 57 57 58 57 56 55 54 55 55 56 57 57 57 56 57 57 56 57 56 56 55 55 54 51 51 50 54 53 50 49 49 49 50 51 50 50 49 52 52
56 57 56 56 57 58 57 57 55 54 54 54 54 54 56 56 56 56 57 58 57 57 58 58 56 56 56 56 55 54 53 53 53 52 50 51 49 49 50 52 50 50 49
56 56 57 56 56 57 57 57 55 54 54 53 52 52 53 54 55 55 55 57 57 56 58 57 57 57 57 57 56 56 54 53 52 52 51 51 51 52 51 50 50 50 49

GFSSE_sfc_dewp_102.txt.gz
Dewpoint
69 71 71 72 72 71 71 71 71 71 72 72 72 72 72 72 72 72 71 71 71 72 70 71 72 72 71 70 71 71 70 70 69 69 69 68 69 69 69 69 69 67 69
68 71 71 71 71 71 71 71 71 72 72 72 72 71 71 71 71 71 71 71 71 71 70 70 71 70 69 70 70 70 70 69 69 69 69 69 68 68 68 68 68 67 68
69 71 71 71 71 71 72 72 72 72 72 72 72 71 71 71 70 70 70 70 71 71 69 69 70 70 69 70 69 69 69 68 68 68 68 65 65 67 68 68 68 68 67
68 70 71 70 71 71 71 72 72 72 72 72 72 71 71 71 70 70 70 70 70 70 67 68 69 69 69 69 68 68 67 67 66 66 64 64 65 67 67 66 66 65 65
68 69 71 70 70 71 71 71 71 71 72 71 71 71 71 71 70 71 70 70 69 68 66 69 68 69 68 68 67 67 66 65 64 61 61 62 64 65 65 65 64 64 63
67 68 69 70 70 71 71 71 71 71 71 71 71 71 71 71 71 70 70 69 69 69 68 68 69 68 68 67 66 65 64 63 62 60 61 63 62 65 64 63 63 63 62
67 68 68 69 70 71 71 71 71 71 70 71 70 69 69 69 68 69 69 69 68 68 68 68 68 67 66 65 65 63 62 62 58 58 59 60 61 63 63 61 61 61 61
67 67 68 69 69 71 71 70 70 69 69 69 68 67 65 66 67 67 68 68 67 67 66 67 66 65 65 64 62 62 62 61 57 56 58 60 63 63 62 61 60 60 60
67 66 66 67 68 68 68 69 68 67 68 67 67 66 65 66 65 67 66 67 67 67 67 66 65 64 64 62 62 62 61 60 55 55 57 59 62 61 61 59 58 58 58
64 65 65 65 66 65 66 66 65 65 66 66 66 65 64 64 65 66 66 67 67 66 66 66 65 64 62 61 61 60 60 60 55 55 55 57 60 59 59 59 58 58 58
63 63 64 65 64 65 64 66 65 66 66 66 65 64 62 61 65 65 65 66 66 66 65 65 64 62 61 61 61 60 59 56 56 55 55 58 59 59 59 58 58 58 58
61 62 62 63 64 65 64 63 64 64 65 64 64 63 62 62 61 61 65 65 66 65 65 64 63 61 57 55 56 58 55 55 55 56 56 60 59 59 59 58 58 58 57
61 62 61 62 64 65 64 62 62 63 62 61 61 60 61 61 63 63 65 64 64 64 62 61 60 54 52 52 53 54 55 55 55 56 58 60 60 59 59 58 58 58 57
61 61 60 61 63 62 63 62 62 62 62 60 61 59 59 61 61 63 63 62 61 61 59 57 55 52 52 51 53 53 54 54 55 56 58 60 60 59 58 58 57 57 56
61 60 60 60 61 62 61 61 61 61 62 62 61 60 60 62 61 63 61 60 59 58 56 53 51 50 50 52 52 53 54 54 55 56 57 59 59 59 58 58 58 57 56
61 60 60 60 60 61 60 62 62 61 61 62 61 60 60 62 62 61 60 58 57 55 53 52 49 49 49 51 52 53 54 54 55 56 57 57 59 59 59 58 57 57 56
61 60 59 59 59 59 60 61 62 62 61 61 61 60 61 62 61 59 58 55 54 51 51 52 49 49 49 50 52 53 54 54 55 55 56 56 57 58 59 59 58 57 56
60 59 58 60 58 59 59 60 62 61 61 62 62 61 61 62 59 56 54 53 52 48 51 52 50 50 50 50 51 52 53 54 54 55 55 55 55 55 58 59 59 58 57
58 58 57 57 58 58 61 59 62 60 62 62 62 62 63 61 58 53 52 51 52 48 52 52 51 50 50 49 50 51 53 53 54 54 54 55 55 55 55 58 58 58 58
57 57 57 57 57 59 60 59 60 61 60 62 62 61 64 60 56 52 53 51 50 50 54 53 51 50 50 49 48 49 52 53 53 53 54 54 54 54 54 55 56 56 57
56 56 56 56 58 59 58 58 58 59 60 60 62 62 62 60 56 52 54 52 53 52 54 52 50 49 49 49 48 47 48 52 52 53 53 53 53 53 54 54 55 54 54
56 55 56 56 58 58 58 57 57 59 60 60 61 61 61 61 58 54 55 53 56 53 54 51 50 49 49 49 47 46 44 45 47 50 52 53 53 53 53 53 53 53 53
55 55 56 56 57 58 58 58 59 59 60 59 60 59 59 59 58 56 57 55 56 55 53 51 49 48 48 48 47 46 45 43 45 47 48 51 51 52 53 52 52 52 52
55 55 56 56 56 57 58 58 58 58 58 58 59 59 57 57 57 56 56 56 55 54 53 51 49 49 48 47 48 50 52 51 47 47 49 47 48 49 51 52 52 52 52
56 56 55 56 56 56 57 57 57 57 58 59 59 58 56 56 56 58 57 56 55 55 55 53 51 51 49 50 49 49 48 50 51 49 46 48 48 48 48 48 49 52 53
55 55 56 56 56 56 56 56 56 56 56 56 57 57 56 56 56 57 58 57 56 56 56 56 56 53 53 52 52 53 51 49 50 50 48 49 49 50 49 49 50 49 50

GFSSE_sfc_dewp_105.txt.gz
Dewpoint
68 70 71 72 72 72 72 71 72 72 72 73 73 72 72 72 72 72 72 72 71 72 71 72 72 72 71 70 70 70 70 70 69 69 69 69 69 69 69 69 69 66 69
68 70 71 71 72 71 72 71 72 72 72 72 72 72 72 72 72 72 72 72 71 71 70 71 72 70 70 70 70 70 70 69 69 69 69 69 68 68 68 68 68 67 68
69 71 70 71 71 71 72 72 72 72 72 72 72 72 72 72 72 72 72 71 71 71 70 70 71 70 70 70 70 70 69 69 68 68 68 65 65 68 68 67 68 68 67
69 70 70 70 71 71 71 72 72 72 72 72 71 71 71 71 71 71 71 71 70 68 70 70 70 69 70 70 69 68 68 68 67 67 65 65 65 67 67 66 66 67 66
69 70 70 70 70 71 71 71 72 72 71 71 71 71 71 71 70 71 70 70 69 67 67 70 70 69 69 68 68 67 67 66 66 63 64 64 64 66 66 66 64 64 65
67 70 70 69 70 71 71 71 71 72 71 71 71 70 71 70 71 70 70 69 68 68 69 69 69 68 68 67 66 65 65 64 63 62 63 64 63 65 65 64 64 64 64
67 68 69 68 69 71 71 71 71 71 71 70 69 68 67 69 69 68 68 69 68 68 69 68 68 68 67 66 65 64 64 63 60 60 61 62 62 64 63 63 63 62 61
67 67 68 69 70 70 70 71 70 70 70 69 68 68 68 67 67 66 67 67 68 67 67 67 67 67 65 64 64 63 62 61 59 60 61 61 64 63 62 62 61 61 60
66 66 66 67 69 70 69 69 69 69 68 67 66 66 66 66 66 66 65 66 66 66 67 66 66 65 63 63 63 62 61 60 56 59 60 61 63 62 61 60 59 59 59
65 65 65 65 66 66 67 68 68 68 66 66 66 64 65 65 65 63 65 65 65 66 66 66 65 64 62 62 62 61 60 59 56 55 58 60 62 61 61 60 58 58 57
63 63 64 64 64 64 65 66 67 66 66 66 65 64 64 64 65 65 64 64 65 66 66 65 64 62 61 62 62 61 59 56 55 55 55 61 60 59 58 57 58 58 58
61 61 63 63 63 63 65 64 64 65 66 65 65 64 63 63 63 63 64 64 64 65 65 64 63 61 60 59 59 59 56 55 55 55 55 61 60 59 59 58 58 58 58
61 61 61 62 63 64 63 63 64 65 65 64 64 63 62 63 63 62 63 64 64 64 62 62 60 54 55 57 55 55 55 55 55 55 57 60 60 58 59 58 58 58 58
60 61 61 61 63 64 63 62 62 63 62 62 63 62 61 61 61 62 63 64 63 62 60 59 55 52 53 54 54 55 55 55 55 56 58 60 60 59 59 59 58 58 57
60 60 60 60 62 63 63 62 61 62 62 61 61 61 61 60 61 61 63 63 61 60 59 57 52 52 52 53 54 54 54 55 56 57 57 59 60 60 59 59 58 58 57
61 60 59 60 60 61 61 62 61 61 62 61 61 60 60 61 60 61 62 61 60 59 57 55 51 51 51 53 53 54 54 55 56 56 57 57 59 59 59 58 58 57 57
61 60 59 59 59 59 59 62 62 61 61 62 61 60 59 61 61 62 61 60 59 57 54 52 50 50 51 52 53 54 54 55 55 56 56 56 57 58 59 59 58 57 56
60 59 58 60 58 58 58 62 62 62 61 61 61 61 60 61 61 61 60 58 56 53 53 51 49 49 51 52 53 53 54 55 55 55 55 55 56 56 58 59 59 58 57
59 59 58 57 57 58 58 59 62 61 60 61 61 61 61 60 62 61 58 55 53 52 52 50 49 49 50 52 52 53 53 54 54 55 55 55 55 55 55 58 58 59 59
58 58 57 56 56 57 59 59 60 61 61 62 62 61 60 62 60 59 55 52 50 50 51 49 49 50 50 51 51 52 52 53 54 54 54 54 55 55 55 54 56 56 57
56 56 56 56 56 57 59 58 58 59 60 61 62 61 61 60 58 55 51 50 48 48 51 50 49 49 49 50 50 49 50 52 52 53 54 54 54 54 54 54 54 54 55
55 55 55 55 57 57 57 56 58 59 60 59 61 61 61 58 55 54 50 48 48 51 53 50 49 49 49 50 48 47 46 46 50 52 53 53 53 54 54 54 54 54 54
55 55 55 56 57 57 57 57 58 58 60 59 59 61 59 57 55 54 50 49 49 53 52 50 49 48 48 48 48 47 44 44 45 47 50 53 52 53 53 53 53 53 53
55 55 55 57 55 56 57 57 57 56 57 59 59 60 60 58 57 57 52 52 52 54 53 51 50 49 49 47 47 51 52 49 46 45 48 49 52 52 52 53 53 52 53
54 55 56 56 55 55 57 57 56 58 58 59 58 57 59 59 58 59 57 56 56 55 55 52 50 49 49 48 49 48 49 51 51 48 45 48 48 50 52 52 53 53 52
54 54 55 56 56 56 56 57 57 57 57 58 57 56 57 58 58 58 57 57 56 55 54 54 52 50 50 50 50 51 50 49 49 50 49 48 48 49 48 48 49 50 52

GFSSE_sfc_dewp_108.txt.gz
Dewpoint
67 68 71 72 72 71 72 72 72 72 73 72 72 72 72 72 72 72 72 72 72 72 72 72 72 72 71 71 71 70 70 70 70 70 70 70 69 69 69 69 69 66 69
67 69 70 71 72 72 72 72 72 72 73 73 73 72 72 72 72 72 72 72 72 72 72 72 72 72 71 70 70 70 70 69 69 69 69 70 69 68 69 69 68 67 69
68 69 70 70 71 72 72 72 72 73 73 73 73 72 72 72 72 72 72 71 71 71 70 71 72 71 70 70 69 68 69 69 69 68 68 66 66 68 68 68 68 68 68
69 69 70 70 71 71 71 71 72 73 73 72 72 72 72 72 72 72 71 71 71 70 70 70 70 70 70 70 69 69 69 68 68 67 66 65 65 67 67 67 67 67 67
69 69 69 70 70 71 71 71 71 72 72 72 72 72 72 72 72 71 70 70 70 70 70 70 70 70 69 69 68 68 67 67 66 65 64 65 65 66 66 66 66 66 66
68 69 68 69 70 71 71 71 71 72 71 71 70 71 71 71 70 69 69 68 69 69 69 69 70 69 68 67 67 67 66 66 65 64 64 65 64 66 65 64 65 65 65
67 68 68 68 69 71 71 71 71 71 70 70 69 67 68 68 68 68 68 68 68 68 68 69 69 68 67 66 66 65 65 64 62 62 62 63 64 65 64 64 63 64 63
66 67 68 69 69 70 71 70 70 70 70 68 68 68 67 67 67 66 66 67 67 67 67 68 68 67 66 66 65 64 63 63 61 61 61 62 64 64 64 62 61 62 61
66 66 66 68 69 69 69 69 68 68 68 67 67 66 66 66 66 66 66 66 66 67 67 67 66 66 65 65 64 63 62 62 60 61 61 61 64 63 62 61 59 60 59
65 65 65 66 67 68 68 68 68 67 66 66 66 65 64 64 64 65 65 66 66 66 66 66 65 64 64 63 63 61 61 61 58 60 60 62 63 61 61 61 60 59 58
63 64 64 64 65 67 67 68 68 66 66 66 66 65 64 64 64 64 64 65 65 66 66 66 64 63 63 63 62 61 59 56 56 57 60 63 61 62 59 59 58 58 58
61 62 63 63 64 64 65 64 66 67 66 65 64 64 64 64 64 63 63 65 65 66 65 64 63 62 61 60 60 59 56 55 55 56 57 61 60 58 58 58 58 57 58
60 61 62 63 63 62 64 65 65 66 66 65 63 63 63 64 64 64 63 64 64 65 63 62 59 58 59 59 56 56 56 55 55 55 57 60 61 58 58 59 58 57 57
59 60 61 61 63 64 63 63 64 64 65 65 64 63 63 63 63 62 62 63 63 62 62 59 55 55 57 55 55 55 55 55 55 56 58 60 59 59 58 58 58 58 57
58 60 60 60 63 63 63 63 63 63 63 64 64 63 62 62 62 61 62 63 62 61 60 57 53 54 54 55 55 55 55 55 56 57 56 59 59 57 58 58 58 57 57
59 59 60 60 62 62 63 62 62 62 62 62 63 62 62 61 61 61 61 62 61 60 59 56 52 53 53 54 54 55 55 56 56 56 57 58 58 60 60 58 58 57 57
59 59 59 59 60 62 62 62 61 62 62 61 61 61 61 61 61 61 62 62 60 59 57 53 51 52 53 54 54 54 55 55 56 56 56 57 58 59 59 60 58 57 57
59 59 59 60 59 59 60 62 62 61 62 62 61 61 61 61 61 61 61 61 61 58 55 53 51 51 52 53 53 54 55 55 55 55 56 56 56 57 59 59 59 59 57
59 59 59 59 58 57 58 62 62 62 61 61 62 61 61 61 61 62 60 60 58 57 55 53 50 51 52 53 53 53 54 54 55 55 55 55 55 56 56 59 59 58 59
58 59 58 58 57 57 58 60 61 61 61 61 61 61 61 60 61 62 61 58 57 55 53 52 49 51 52 52 52 52 52 53 54 54 54 55 55 55 55 56 57 57 58
57 58 57 57 56 58 59 59 59 59 60 61 61 61 61 60 61 61 59 55 56 54 52 50 50 50 50 52 51 50 50 52 52 53 54 54 54 55 55 55 55 55 56
57 57 57 57 57 58 58 58 59 59 60 60 61 61 60 61 60 59 56 54 53 52 50 50 49 49 49 52 50 49 48 49 51 53 53 54 54 54 54 54 54 55 55
56 56 56 56 57 57 56 58 57 58 59 59 59 60 61 59 58 56 55 53 50 51 49 49 49 49 49 50 51 48 45 46 48 49 52 53 53 53 54 54 54 54 54
56 55 55 56 56 56 56 56 55 56 57 58 59 60 60 58 56 53 52 49 50 51 50 49 50 50 50 48 49 51 50 48 47 45 48 51 53 52 53 53 54 54 54
55 55 55 56 55 55 55 56 56 55 57 59 57 59 57 57 56 53 51 50 52 52 51 49 50 50 50 49 49 49 51 51 50 47 45 47 49 52 53 53 54 53 53
54 55 55 55 55 54 55 57 55 55 58 57 57 57 56 56 56 54 53 53 55 55 53 52 51 51 50 50 50 50 51 50 51 50 49 48 48 49 50 52 53 53 54

GFSSE_sfc_dewp_111.txt.gz
Dewpoint
66 68 71 72 70 72 72 72 72 73 72 72 73 73 73 73 73 73 73 72 72 72 72 72 72 72 72 71 72 71 71 70 70 70 70 70 70 70 70 70 69 66 70
65 68 70 71 70 70 72 72 72 73 73 73 73 73 73 73 72 72 72 72 72 72 71 72 72 72 72 71 71 71 70 70 69 69 70 69 69 69 69 69 68 68 70
67 69 69 70 69 71 72 72 73 73 73 73 73 73 73 72 72 72 72 72 72 72 71 71 72 71 71 71 70 70 70 69 69 69 69 65 66 68 68 69 69 69 69
67 69 69 69 70 71 72 72 72 73 73 73 73 72 72 72 72 72 72 71 71 71 71 71 71 70 70 70 69 69 69 69 68 68 65 64 64 68 68 68 69 69 68
67 68 69 69 70 71 72 72 72 73 72 72 71 72 72 72 72 71 71 70 70 71 71 70 70 70 69 69 69 68 68 68 67 65 64 64 64 66 68 67 68 68 67
67 68 69 69 70 71 71 72 72 71 71 71 71 71 70 71 70 70 70 70 69 70 70 70 70 70 68 68 67 67 67 66 66 63 64 65 64 66 66 66 67 67 67
68 69 70 68 70 70 71 72 71 71 71 70 69 69 68 68 68 67 68 68 68 69 69 69 70 68 68 67 67 66 66 66 64 63 63 63 64 65 64 64 65 65 65
69 70 70 69 70 70 70 69 70 70 69 68 69 69 68 68 68 68 68 68 68 68 68 68 68 68 67 66 66 65 64 64 63 63 63 62 65 64 64 63 63 63 63
69 70 70 70 70 69 69 68 69 69 68 68 68 67 67 67 67 67 67 67 68 68 68 68 67 66 66 65 64 63 63 64 63 62 61 61 65 64 63 61 61 60 60
68 69 69 70 70 71 71 68 67 68 67 67 67 66 65 65 66 66 66 66 67 67 67 67 66 65 65 64 63 63 63 63 62 61 61 61 64 62 61 59 60 60 60
67 68 68 70 70 70 70 70 68 67 67 66 66 65 64 65 64 62 64 65 66 66 67 66 65 64 64 63 62 62 62 60 61 60 60 63 63 62 61 60 58 60 59
65 67 68 69 69 68 67 69 70 69 68 67 67 65 66 65 64 63 64 65 66 66 66 65 64 63 63 61 60 60 59 60 60 60 59 63 62 61 60 59 59 59 58
63 65 67 68 69 68 66 67 68 68 67 67 66 66 65 65 64 65 64 66 66 66 64 64 62 61 61 60 58 58 58 59 58 57 59 61 62 60 59 58 58 58 58
61 63 66 67 67 67 67 66 66 66 66 66 65 65 65 64 64 63 63 63 64 66 65 62 59 61 61 59 58 58 58 56 56 55 57 61 60 60 60 60 58 59 58
60 62 65 66 66 66 65 65 65 65 66 66 64 64 64 64 64 64 62 64 64 64 64 61 58 59 59 58 58 57 57 57 57 55 56 59 60 60 59 58 59 59 58
59 61 63 65 65 64 64 64 64 65 65 66 64 63 63 64 63 62 62 63 63 64 63 59 57 57 57 57 57 57 57 56 56 56 55 56 59 60 60 59 58 58 57
59 61 62 64 65 64 64 63 63 64 64 64 64 63 63 63 63 62 63 63 62 63 61 59 57 57 56 56 57 57 56 57 56 56 55 55 55 58 59 60 59 57 57
56 60 62 62 64 63 63 63 63 63 63 63 63 63 63 63 63 62 61 62 63 61 60 57 56 56 56 56 56 55 55 56 56 57 56 56 56 55 58 59 59 59 58
56 60 61 63 63 62 63 63 63 63 63 62 62 62 62 62 62 62 62 62 62 61 59 55 55 56 55 55 55 55 55 55 56 55 56 57 57 56 55 58 59 59 59
58 60 61 63 63 62 63 63 63 63 62 63 63 62 61 61 62 62 62 61 60 59 58 55 55 55 55 55 52 54 55 55 55 55 56 55 56 57 57 57 56 56 58
59 60 61 61 62 61 61 60 60 59 61 61 62 62 62 61 62 62 62 60 59 58 56 57 55 55 54 55 54 54 54 55 56 55 56 55 55 56 57 56 56 55 55
58 59 60 60 60 60 59 60 60 61 61 62 62 62 62 61 61 61 61 59 58 56 55 55 55 54 54 55 52 52 50 52 54 55 55 55 56 55 55 56 56 56 55
58 58 58 59 59 60 60 59 59 61 61 61 61 62 61 61 61 61 60 59 58 55 53 54 55 54 52 54 55 51 50 48 51 53 55 54 55 55 55 55 56 55 55
57 57 58 59 59 58 58 58 57 57 57 59 60 61 61 60 60 59 58 58 58 55 53 53 55 55 55 53 54 51 53 52 49 50 52 53 54 54 55 55 54 55 55
57 56 57 59 58 57 58 58 57 58 59 60 60 60 60 60 59 57 57 56 56 55 54 52 54 55 55 53 53 52 51 51 52 48 46 50 52 53 54 55 54 55 55
57 55 58 58 56 56 58 58 58 57 57 58 59 59 58 58 56 56 55 54 54 55 54 54 54 55 55 54 54 54 51 48 49 52 51 49 50 51 53 54 55 55 55

GFSSE_sfc_dewp_114.txt.gz
Dewpoint
57 63 71 71 72 72 72 72 72 73 73 73 73 73 73 73 73 73 73 73 73 73 72 72 72 72 71 71 72 72 71 71 71 71 71 70 70 70 70 70 69 66 70
56 64 71 71 71 72 72 72 73 73 73 73 73 73 73 73 73 73 73 73 73 73 72 71 72 71 71 72 71 71 71 70 70 70 70 70 69 69 69 69 69 68 70
59 65 69 71 70 71 72 72 73 73 73 73 73 73 73 73 73 72 72 72 72 72 71 71 71 71 71 71 71 70 70 70 69 69 69 64 66 69 69 70 69 70 70
59 64 67 70 70 71 72 72 73 73 73 73 73 73 72 72 72 71 72 71 71 72 72 71 71 71 71 71 70 70 69 69 69 69 64 63 64 68 69 69 69 69 69
59 62 67 70 70 71 72 72 72 73 73 72 72 72 71 71 70 70 69 71 71 72 72 70 70 71 70 70 69 69 69 68 68 65 62 63 63 67 68 68 68 68 68
60 62 68 69 70 71 72 72 72 72 72 72 71 71 71 71 69 69 69 71 71 71 70 70 71 70 69 69 68 68 67 67 66 61 63 64 64 67 67 67 68 68 67
62 64 70 69 69 71 71 72 72 71 71 71 70 70 69 68 66 67 67 67 69 69 70 70 70 69 68 68 67 67 67 66 61 63 62 64 65 67 66 66 66 67 67
66 68 70 69 69 69 70 71 71 70 70 70 69 69 69 66 66 67 68 68 69 69 69 70 69 68 67 67 66 66 65 65 62 62 63 63 65 65 64 63 65 65 64
68 69 70 71 70 69 68 68 69 69 69 69 68 68 68 67 67 68 67 68 69 69 69 69 68 67 67 66 65 65 64 65 63 62 63 63 66 64 63 62 61 62 63
67 68 69 69 71 71 70 67 68 68 68 68 68 67 66 65 67 67 67 68 68 68 68 68 67 66 65 65 64 64 64 64 62 62 61 62 65 63 62 61 61 60 60
65 67 68 69 69 70 70 69 68 68 67 67 67 66 65 66 67 66 64 67 67 67 68 67 66 65 64 63 63 63 63 63 63 61 62 64 65 62 61 61 60 60 60
64 66 66 68 69 69 68 70 70 70 69 68 67 67 65 67 64 61 62 66 67 67 67 66 65 64 63 63 63 63 63 62 60 60 60 64 63 61 61 59 60 60 59
61 65 66 68 69 69 68 68 69 71 70 69 68 67 66 65 63 60 61 63 68 66 65 65 65 63 64 63 62 62 59 59 55 55 60 63 63 61 60 60 59 59 58
57 63 66 67 68 69 68 67 69 70 70 69 68 68 67 66 65 62 60 61 64 66 66 65 65 64 63 61 60 59 58 55 54 53 59 61 62 61 59 59 60 59 59
55 60 65 66 67 68 68 68 67 69 68 68 68 67 67 66 65 61 60 60 63 67 65 65 65 63 61 60 59 58 57 56 55 52 55 60 60 61 59 60 60 59 59
53 59 63 65 67 67 67 67 67 67 68 67 67 67 67 67 65 64 64 61 65 65 65 63 62 61 59 59 58 58 57 56 54 54 53 56 59 60 60 60 60 59 58
50 57 61 65 66 67 66 66 65 66 67 67 66 67 66 65 65 65 64 65 61 65 65 62 61 61 57 57 57 58 57 55 53 53 53 55 56 59 60 61 60 59 58
40 50 59 61 65 66 65 65 64 65 66 66 66 65 65 65 64 64 64 65 65 63 62 61 59 58 56 56 57 57 56 54 55 53 52 52 54 54 58 60 60 60 59
40 47 58 62 65 66 65 64 64 65 65 65 65 65 65 65 64 63 62 65 64 62 62 60 59 58 56 55 55 56 55 54 55 51 53 53 54 53 53 58 59 59 59
47 51 58 61 64 65 65 65 64 64 64 64 64 64 64 64 63 63 63 62 63 62 61 60 60 58 56 56 52 55 55 54 54 52 52 51 53 54 53 56 55 55 58
53 54 58 61 63 63 63 63 63 63 63 63 63 63 62 63 62 63 62 62 62 61 61 60 60 58 57 57 54 55 54 55 55 51 52 51 52 53 54 54 53 52 55
54 56 58 59 62 62 62 62 62 61 62 61 62 63 63 62 62 62 62 62 61 60 60 59 59 58 57 57 54 53 52 54 54 53 51 51 54 51 52 53 54 54 53
55 58 57 59 61 63 63 61 61 61 61 62 62 63 62 62 62 61 62 61 60 60 58 57 59 58 56 57 57 51 49 47 51 53 53 51 53 52 51 53 54 54 55
55 58 58 59 60 61 62 61 60 58 56 59 60 61 62 62 62 62 61 60 60 59 58 56 57 56 57 55 54 51 52 49 48 49 51 52 52 52 54 52 53 54 55
55 58 59 60 60 61 62 60 58 56 57 59 60 61 62 62 62 62 61 60 59 58 58 56 56 56 56 55 54 53 54 53 52 46 46 49 51 52 52 54 54 54 55
57 58 59 59 59 60 60 60 58 58 58 59 59 60 61 61 61 60 59 60 59 58 57 57 57 56 58 57 55 54 52 49 49 47 43 48 49 51 52 53 55 55 55

GFSSE_sfc_dewp_117.txt.gz
Dewpoint
48 64 71 72 72 72 72 73 73 73 73 73 73 73 73 73 74 74 74 74 73 73 73 72 72 72 71 71 71 72 72 71 71 71 71 71 70 70 70 70 69 66 70
50 63 71 72 72 72 72 72 73 73 73 73 73 73 73 73 73 74 74 73 73 73 72 72 72 71 71 72 71 71 71 70 70 70 71 71 70 69 69 70 69 68 70
53 64 68 71 72 71 72 72 73 73 74 73 73 73 73 72 72 73 73 73 72 72 71 71 71 71 71 71 71 71 71 70 70 70 69 64 67 70 70 70 70 70 70
54 64 67 70 71 72 72 72 73 73 73 73 73 73 72 72 72 71 71 71 71 72 72 71 71 71 71 71 70 70 70 70 70 69 64 64 65 69 69 69 70 70 70
53 59 68 70 70 72 72 72 73 73 73 73 73 72 71 71 70 69 69 69 70 72 72 71 71 71 71 70 70 69 69 69 68 66 62 64 64 67 69 69 69 69 68
53 57 69 69 70 71 72 72 72 72 72 72 72 72 70 69 69 68 67 68 69 70 71 71 71 71 70 69 69 68 68 68 68 61 62 64 64 68 68 68 68 68 68
55 62 70 69 70 71 72 72 72 71 72 72 72 71 69 68 68 68 68 68 68 68 71 71 71 70 69 68 68 67 67 67 62 62 63 65 66 68 68 68 68 68 68
61 66 69 69 70 71 71 71 71 71 71 71 71 70 68 66 65 66 68 68 67 68 70 70 69 69 68 68 67 66 66 65 63 64 64 65 67 67 66 66 66 66 66
65 67 70 70 69 70 69 69 69 69 70 70 70 69 67 66 66 65 66 68 68 68 70 69 68 68 67 67 66 65 65 65 63 64 64 62 66 65 64 64 63 63 64
65 67 68 69 70 70 70 68 68 69 68 68 68 68 66 66 66 66 68 67 68 69 69 68 67 67 66 66 65 65 64 64 62 63 64 63 65 64 63 62 62 61 62
64 66 66 68 69 70 70 69 68 68 68 68 68 66 65 65 63 65 65 68 68 68 68 67 66 66 65 64 64 64 64 63 62 64 64 65 65 63 62 62 61 61 61
62 65 65 67 68 69 67 70 69 68 68 67 68 68 68 66 65 64 65 67 68 67 67 66 66 64 64 64 63 63 63 62 62 63 62 65 65 62 62 61 61 60 60
59 63 64 67 68 69 69 69 68 67 66 67 67 68 68 65 69 64 67 64 68 67 65 66 64 65 63 63 62 65 62 61 61 60 61 64 64 62 61 60 60 59 59
52 61 64 65 67 70 68 67 66 67 66 66 67 69 68 66 67 66 60 59 64 68 66 64 64 65 64 63 63 63 61 58 52 57 61 63 63 62 60 61 60 59 60
44 55 63 65 67 69 68 65 66 68 67 67 67 69 68 67 65 63 62 64 65 68 67 65 64 65 64 62 61 60 56 54 53 56 58 61 61 62 61 61 59 58 59
43 53 61 65 66 68 68 68 67 67 67 69 68 68 68 67 68 64 66 64 65 67 66 65 64 62 64 60 60 56 55 53 53 53 56 58 60 61 61 61 60 58 58
42 49 58 64 66 67 68 67 67 65 66 68 67 68 68 68 67 66 65 64 64 67 64 64 63 63 64 59 58 55 54 55 52 52 53 55 57 60 61 61 61 59 59
35 46 53 57 65 68 67 67 65 65 65 67 67 67 67 67 67 67 65 66 65 66 64 63 63 62 61 59 56 58 56 53 52 52 52 53 53 54 59 61 61 61 60
36 39 47 60 63 68 67 65 65 66 65 66 66 66 66 66 66 65 66 66 65 65 64 62 62 60 59 58 56 58 59 52 52 49 52 52 54 54 54 59 59 59 60
39 41 47 56 63 67 66 66 64 64 65 65 64 64 66 66 65 65 65 65 66 65 63 61 60 60 58 56 53 55 57 55 52 50 50 50 53 55 53 56 56 55 59
42 47 50 54 62 64 64 64 64 62 63 63 63 64 65 66 64 65 65 64 63 62 62 61 61 59 58 57 57 57 58 57 57 50 50 50 51 52 53 55 53 52 55
41 51 52 55 59 63 64 64 63 63 63 63 62 63 64 64 64 64 64 63 63 62 62 60 60 58 58 58 55 55 53 54 54 49 50 51 55 50 51 53 53 52 54
46 52 53 55 58 62 63 63 62 62 63 61 61 62 63 63 63 63 63 63 62 62 61 60 60 57 56 57 58 54 51 49 52 51 51 50 54 51 51 51 52 52 53
45 52 54 55 57 63 64 62 62 60 59 60 60 61 62 63 62 62 62 62 62 61 61 60 60 59 58 55 57 55 55 51 50 49 50 50 51 51 54 52 53 53 53
43 53 57 56 57 63 63 62 61 60 59 58 58 60 61 62 63 62 62 61 61 61 61 59 60 59 58 57 56 55 54 52 54 50 48 49 49 50 50 52 52 53 54
54 57 59 57 57 61 62 62 61 61 58 57 57 58 61 62 62 62 62 61 60 60 60 59 59 59 58 57 57 56 53 52 51 51 49 50 49 50 49 52 55 55 55

GFSSE_sfc_dewp_120.txt.gz
Dewpoint
58 68 72 72 73 73 73 73 73 73 73 73 73 73 73 74 74 74 74 74 74 74 73 72 73 73 72 72 72 72 72 72 71 71 71 71 70 70 71 70 69 68 71
62 68 71 72 72 72 72 73 73 73 73 73 73 73 73 74 74 74 74 74 73 73 73 72 72 71 71 72 72 71 71 71 70 70 70 71 71 70 70 70 70 69 70
63 68 69 72 72 72 72 72 72 73 74 73 73 73 73 73 72 72 73 73 72 73 72 72 72 72 72 71 71 71 71 70 69 69 69 67 68 70 70 70 70 70 70
63 66 68 71 72 72 72 72 73 73 74 73 73 73 73 72 70 70 70 70 70 72 72 72 72 71 71 71 70 70 70 70 69 69 65 66 66 70 70 70 70 70 70
62 64 69 70 71 72 72 72 73 73 73 73 73 73 72 69 68 68 68 68 68 68 72 71 72 71 71 70 70 69 69 69 68 66 64 65 66 68 69 69 69 69 68
58 67 69 69 70 71 72 73 73 73 71 72 72 72 70 67 67 67 65 68 67 66 68 71 71 71 69 69 69 68 68 68 67 63 64 66 65 68 68 69 69 68 68
64 69 69 69 70 71 72 72 72 72 71 71 72 71 70 68 67 66 66 67 62 63 68 69 70 70 69 68 68 67 67 67 63 63 64 66 66 68 69 68 68 68 68
70 70 69 69 70 71 71 71 71 71 70 71 71 69 69 68 67 66 67 66 64 63 67 68 69 69 68 68 67 66 65 65 64 64 65 66 67 67 68 67 68 67 67
70 70 70 69 70 70 70 69 70 70 70 71 70 68 67 68 67 68 68 67 65 67 68 69 68 68 68 67 67 65 64 65 65 64 64 65 67 67 67 66 65 65 65
67 70 69 69 70 70 70 68 69 69 69 69 69 67 66 65 66 67 68 68 68 68 69 68 68 67 67 66 66 64 64 65 65 65 64 64 66 65 65 64 63 63 64
67 68 69 69 70 71 70 69 69 69 68 68 68 67 65 65 65 65 65 66 67 67 68 67 67 66 65 65 65 64 64 64 64 65 63 65 65 64 63 63 63 62 62
65 67 68 69 70 71 68 70 69 69 69 69 69 67 67 67 64 63 65 67 67 67 67 66 66 65 65 65 64 64 64 63 64 64 62 65 65 63 63 62 62 62 62
63 66 67 68 70 70 68 69 68 68 68 68 69 69 68 67 67 67 67 67 66 67 66 65 65 65 65 65 64 63 63 62 63 62 63 64 65 63 62 61 61 61 61
59 64 66 68 70 70 68 68 68 67 68 68 68 69 68 67 67 66 67 66 65 66 65 65 65 64 63 63 64 63 63 62 62 61 62 63 63 63 61 61 60 59 60
55 63 65 67 69 69 69 68 68 67 68 68 68 68 68 67 66 66 64 64 63 66 65 65 64 63 63 63 63 62 61 61 61 60 61 62 62 62 61 61 59 60 59
47 62 65 66 68 70 68 68 67 69 67 69 68 68 68 67 67 65 64 65 66 66 66 65 63 63 63 62 63 61 59 55 58 59 60 60 61 62 62 61 59 58 58
45 55 65 66 68 69 68 68 67 68 68 68 68 69 68 67 67 65 65 64 65 66 65 64 63 63 63 62 60 59 56 55 55 57 57 58 59 60 61 61 61 60 57
37 50 61 64 67 68 69 67 67 67 67 67 67 68 68 67 67 66 65 64 65 65 64 63 62 62 62 61 58 56 56 54 54 55 56 56 57 58 60 61 61 60 60
40 46 56 61 65 67 69 68 67 67 67 67 67 67 67 67 66 66 65 64 64 65 63 62 62 61 61 61 60 56 56 54 53 52 54 55 55 56 57 60 60 59 59
43 47 56 60 64 67 68 68 67 66 66 66 67 66 67 67 66 65 65 64 64 64 62 61 61 61 60 60 59 56 57 55 52 53 52 53 54 55 56 57 58 57 59
46 52 53 59 63 66 66 66 65 64 65 65 65 65 65 65 65 65 64 64 64 63 62 61 61 59 59 58 59 57 57 55 55 52 53 54 53 55 55 56 55 55 57
47 51 54 53 62 63 65 65 64 64 64 63 64 64 64 64 65 64 64 63 63 63 62 61 60 59 58 58 58 54 53 54 55 52 52 53 53 53 56 55 54 54 55
49 55 54 54 57 62 65 65 64 63 63 63 63 63 63 63 64 63 63 63 63 63 61 61 60 59 56 57 58 53 52 50 51 53 52 52 54 52 55 54 53 53 55
50 56 56 56 56 61 65 63 63 61 61 61 62 62 63 63 63 63 63 63 62 62 61 61 61 59 58 56 58 57 54 52 48 49 50 52 54 52 53 53 53 54 54
47 56 57 57 57 63 63 63 62 61 61 61 61 61 61 62 62 62 62 62 62 62 61 61 61 59 58 56 55 55 54 55 50 49 47 49 51 52 53 54 54 54 54
58 59 60 58 57 64 63 63 62 62 61 60 60 61 61 61 62 62 61 61 61 61 61 61 61 60 59 58 56 55 53 52 51 50 49 48 48 50 51 53 54 54 55

GFSSE_sfc_dewp_123.txt.gz
Dewpoint
66 71 71 72 72 72 72 73 72 72 73 73 73 73 73 74 74 74 73 74 73 73 73 73 73 72 71 71 72 72 71 70 70 71 71 72 71 71 71 71 70 69 71
67 70 71 72 72 72 72 72 73 72 73 73 73 73 73 73 74 74 73 74 73 74 73 72 72 72 72 72 72 72 71 71 69 70 71 71 71 71 70 71 70 70 71
68 70 71 71 72 72 72 72 73 73 73 73 73 73 73 72 72 71 72 71 71 71 72 71 71 71 71 72 71 71 71 70 69 70 70 68 69 70 70 71 70 70 70
66 69 70 71 71 72 72 72 73 73 74 73 73 73 72 71 71 70 69 69 69 68 70 71 71 71 71 71 70 70 70 69 69 68 67 67 68 70 70 70 70 70 70
65 68 70 70 71 71 72 72 73 73 73 73 73 73 71 70 69 69 69 68 68 66 68 70 71 71 71 70 69 69 69 69 68 67 66 66 67 69 70 69 70 70 69
64 68 69 69 70 71 72 72 73 72 71 72 72 72 70 70 69 69 68 67 65 67 68 68 70 70 70 69 68 68 68 67 66 65 66 68 67 69 69 69 69 69 68
68 68 68 68 70 71 72 72 72 70 70 71 71 70 69 70 69 68 68 66 64 66 67 68 70 70 69 68 68 67 66 66 65 65 66 67 67 69 69 68 69 68 68
68 68 68 69 70 70 71 71 71 70 69 70 70 69 69 69 68 67 68 67 66 67 66 68 68 68 68 68 67 66 65 65 65 66 66 66 68 68 68 68 68 67 67
69 68 68 68 70 70 69 69 69 69 68 70 69 68 68 68 67 67 67 66 66 67 67 67 68 67 67 66 66 65 64 66 65 65 65 65 68 68 67 67 66 66 66
68 67 67 68 68 68 68 68 68 68 68 69 68 68 67 66 66 66 67 66 65 66 67 69 68 67 66 65 65 64 64 65 65 65 65 65 67 67 66 66 66 64 64
68 67 67 68 68 68 67 68 68 69 68 68 68 66 65 65 65 67 67 67 67 67 67 68 67 66 65 65 64 64 64 65 64 63 64 66 66 65 65 65 64 64 63
66 67 67 68 68 69 69 67 67 68 67 68 67 65 64 64 64 65 65 66 67 67 67 67 66 66 65 65 64 64 64 64 64 62 63 65 65 64 64 64 63 63 63
65 67 67 68 68 68 68 67 68 68 68 68 67 65 64 65 64 63 65 65 66 67 66 65 65 65 65 65 64 63 62 63 63 62 63 64 65 64 63 63 63 63 62
64 65 67 68 68 68 67 67 67 68 67 67 68 66 66 66 63 65 66 65 65 65 64 64 64 64 64 64 64 64 63 64 63 62 63 63 64 64 63 62 62 62 62
62 64 65 67 68 68 67 68 67 66 67 67 67 68 67 66 64 65 65 64 64 64 64 63 63 63 63 63 64 63 62 63 61 62 62 62 63 63 62 61 60 61 61
58 64 64 66 68 68 67 67 67 66 66 67 67 68 67 66 65 64 64 64 64 65 64 63 63 62 62 62 63 63 62 62 60 61 61 61 61 62 62 60 60 60 60
51 62 64 66 67 68 67 66 66 67 66 67 67 67 66 65 65 64 64 64 64 65 64 63 62 63 63 63 62 61 61 60 59 60 60 60 60 60 61 61 60 61 59
36 61 63 64 67 68 67 67 66 67 66 66 67 67 66 65 65 64 63 64 65 64 64 62 62 62 62 62 61 61 57 58 58 58 59 59 59 59 60 61 61 61 60
33 57 63 63 66 68 67 67 66 66 66 66 65 66 66 66 65 64 63 63 64 64 62 61 60 61 60 61 61 60 56 57 57 57 57 57 57 58 59 60 60 59 59
28 46 62 63 65 68 68 66 66 65 65 66 66 65 65 66 65 64 63 63 64 63 61 61 60 59 60 60 61 61 56 55 55 55 56 56 56 57 58 59 58 56 58
30 42 60 63 65 67 67 66 65 64 64 64 66 65 64 66 65 64 64 63 63 63 61 60 60 59 59 60 59 58 58 53 52 54 55 55 55 55 57 58 57 56 57
37 47 55 61 64 66 67 66 65 65 64 64 66 65 65 66 65 64 63 62 63 63 61 60 59 59 57 59 57 57 54 54 54 52 53 53 54 54 56 56 55 55 56
40 48 53 58 64 64 65 65 64 63 62 62 63 63 64 64 64 63 63 62 62 63 61 60 60 59 57 58 59 55 52 51 51 53 52 53 53 54 55 55 54 54 55
41 50 49 54 61 63 65 64 63 62 61 61 62 63 63 63 64 63 62 62 62 62 62 61 61 59 58 57 58 59 55 52 49 50 50 51 53 53 55 55 54 54 55
40 51 51 52 59 62 64 64 62 62 61 62 62 62 62 62 62 63 63 62 62 62 62 61 61 59 59 57 57 58 57 54 50 49 46 49 52 52 55 55 54 54 55
50 53 53 53 58 63 63 63 62 61 61 61 61 60 61 62 61 61 62 62 62 62 61 61 61 60 59 57 57 58 56 53 49 49 48 48 48 51 52 53 53 53 55

GFSSE_sfc_dewp_129.txt.gz
Dewpoint
66 70 72 72 72 72 72 72 72 72 72 73 73 73 73 73 73 73 73 73 73 73 72 72 73 72 71 72 72 72 71 71 71 70 71 71 71 71 71 72 71 69 71
67 70 71 72 72 72 72 72 72 72 72 73 73 73 73 73 73 73 72 73 73 73 71 71 71 73 72 72 71 71 71 70 70 70 70 71 71 71 71 71 71 70 70
68 70 71 71 72 72 72 72 72 73 72 72 73 73 73 73 73 72 72 72 72 72 71 71 72 71 71 71 70 70 71 70 70 70 70 69 68 70 71 71 70 70 70
69 70 70 71 71 72 72 72 73 73 72 73 72 73 73 73 72 72 71 71 72 72 72 71 71 71 71 70 70 71 71 70 70 70 69 67 67 70 70 70 70 70 69
68 69 69 70 70 71 72 72 72 73 72 72 72 72 72 72 72 70 70 70 71 72 72 71 71 71 70 70 70 70 69 69 68 68 67 67 66 69 69 69 69 69 69
68 69 69 69 70 70 71 72 72 72 72 71 72 72 72 71 71 70 69 69 71 71 71 72 71 70 69 69 69 69 68 68 67 66 67 67 66 69 69 69 69 69 68
67 68 69 69 70 70 71 72 72 72 71 71 71 71 71 71 70 69 68 69 70 70 71 71 70 69 68 68 68 68 67 67 66 65 66 66 67 69 69 69 69 68 68
66 68 68 69 70 70 71 71 71 71 71 71 70 70 71 70 70 69 68 68 68 69 69 69 69 68 68 68 67 66 66 66 66 65 65 66 68 68 68 68 68 68 67
66 67 68 68 69 69 69 69 69 69 69 70 69 69 69 69 68 68 67 67 68 68 68 69 68 68 68 67 66 65 65 66 65 65 66 66 68 68 68 67 67 66 66
65 66 67 68 68 68 69 68 67 67 68 69 68 67 67 67 67 67 66 66 67 68 67 68 67 67 67 65 65 64 65 65 64 65 65 66 68 68 67 67 66 66 65
64 65 67 67 68 68 68 68 67 67 68 68 68 67 65 65 65 66 65 66 67 67 67 68 67 66 65 65 65 65 65 64 64 64 64 67 67 68 67 67 66 65 65
63 64 65 67 67 67 69 68 66 67 68 67 67 66 65 63 63 65 64 65 66 66 67 67 66 65 65 64 65 65 64 64 64 63 64 66 67 67 67 66 65 64 63
63 64 65 66 66 67 67 67 67 68 68 68 65 64 63 62 63 63 63 63 63 65 65 66 66 64 64 64 64 64 64 64 63 64 65 65 67 66 66 66 65 64 63
63 63 64 65 66 66 67 66 66 67 67 68 66 63 62 62 62 62 63 63 62 63 64 65 64 63 63 63 64 64 63 63 63 63 64 64 65 66 66 65 64 63 63
62 64 64 65 65 66 66 65 65 65 67 67 66 64 63 62 62 62 62 62 63 64 64 63 63 62 62 63 63 64 63 63 63 63 63 63 64 65 65 65 64 64 63
59 64 65 65 65 66 65 65 65 65 66 66 66 65 63 62 62 62 62 62 63 63 64 63 62 62 62 62 62 63 64 63 63 63 62 63 62 64 65 64 64 64 63
55 62 65 65 65 66 65 65 65 65 65 65 65 66 64 64 63 62 62 62 62 63 63 61 60 60 61 62 62 62 63 63 63 63 62 62 62 62 63 64 64 64 63
48 61 65 66 66 66 66 66 65 66 66 65 65 65 66 65 63 63 63 63 62 62 61 60 59 59 59 60 60 61 62 62 62 62 62 61 61 61 61 62 63 63 63
48 58 64 66 66 66 66 66 66 65 65 66 66 65 65 65 64 63 63 62 63 62 61 60 58 59 58 59 60 60 61 61 62 62 61 60 60 59 59 60 60 61 62
33 54 61 65 66 67 66 66 66 65 65 66 66 66 65 66 65 63 63 62 63 62 61 60 58 58 58 59 60 59 59 60 61 61 60 60 59 59 58 57 57 59 59
29 36 56 63 65 66 66 65 65 65 65 65 66 66 66 65 64 63 63 62 62 62 61 60 57 58 57 59 60 58 58 58 59 60 60 59 58 58 58 57 56 57 58
30 33 43 59 63 66 66 65 65 65 65 65 66 66 66 65 64 64 62 62 63 62 60 59 58 56 58 60 57 57 54 55 57 58 59 58 57 58 58 58 56 55 56
27 30 42 54 61 65 66 65 64 63 63 64 65 65 65 65 64 64 63 62 63 62 61 60 60 58 57 59 58 56 54 52 53 56 57 57 56 56 57 57 57 55 55
21 31 33 51 60 64 66 65 64 63 63 64 64 65 65 65 65 64 64 63 63 63 62 61 60 60 59 58 58 58 55 53 51 51 55 56 57 56 56 57 56 55 55
20 35 35 45 59 63 65 65 64 63 63 63 65 65 64 65 65 65 64 63 63 63 62 61 60 60 59 58 58 57 55 55 53 51 51 54 56 56 55 56 56 56 55
47 46 52 48 59 63 65 65 64 63 63 63 63 63 64 64 64 64 64 63 63 63 62 61 61 60 59 59 58 57 56 55 52 50 49 52 53 55 56 56 55 55 55